Wetterdaten: Samstag, 24.12.2016
Datum Zeit Temp. A. Feuchte A. Luftdruck Regen Wind Richtung Richtung Sonnenschein ET UV Solar Taupunkt Windchill Windben Empfang
24.12.2016 00:00 -0,5 C 99 % 1033,0 hPa 0,0 l/m 0,0 km/h (0 Bft) NO 55 0 min 0,000 mm 0,0 UV-I 0 W/m -0,6 C -0,5 C 0,0 km/h (0 Bft) 95,74 %
24.12.2016 00:02 -0,5 C 99 % 1033,0 hPa 0,0 l/m 0,0 km/h (0 Bft) NO 55 0 min 0,000 mm 0,0 UV-I 0 W/m -0,6 C -0,5 C 0,0 km/h (0 Bft) 97,83 %
24.12.2016 00:04 -0,5 C 99 % 1033,0 hPa 0,0 l/m 0,0 km/h (0 Bft) NO 55 0 min 0,000 mm 0,0 UV-I 0 W/m -0,6 C -0,5 C 0,0 km/h (0 Bft) 100,00 %
24.12.2016 00:06 -0,5 C 99 % 1032,9 hPa 0,0 l/m 0,0 km/h (0 Bft) NO 55 0 min 0,000 mm 0,0 UV-I 0 W/m -0,6 C -0,5 C 0,0 km/h (0 Bft) 98,00 %
24.12.2016 00:08 -0,5 C 99 % 1032,8 hPa 0,0 l/m 0,3 km/h (0 Bft) NO 55 0 min 0,000 mm 0,0 UV-I 0 W/m -0,6 C -0,5 C 1,6 km/h (1 Bft) 100,00 %
24.12.2016 00:10 -0,5 C 99 % 1032,8 hPa 0,0 l/m 0,0 km/h (0 Bft) NO 55 0 min 0,000 mm 0,0 UV-I 0 W/m -0,6 C -0,5 C 0,0 km/h (0 Bft) 97,87 %
24.12.2016 00:12 -0,5 C 99 % 1032,9 hPa 0,0 l/m 0,5 km/h (0 Bft) NO 55 0 min 0,000 mm 0,0 UV-I 0 W/m -0,6 C -0,5 C 1,6 km/h (1 Bft) 100,00 %
24.12.2016 00:14 -0,5 C 99 % 1032,8 hPa 0,0 l/m 0,1 km/h (0 Bft) NO 55 0 min 0,000 mm 0,0 UV-I 0 W/m -0,6 C -0,5 C 1,6 km/h (1 Bft) 100,00 %
24.12.2016 00:16 -0,5 C 99 % 1032,8 hPa 0,0 l/m 1,8 km/h (1 Bft) NO 55 0 min 0,000 mm 0,0 UV-I 0 W/m -0,6 C -0,5 C 3,2 km/h (1 Bft) 100,00 %
24.12.2016 00:18 -0,5 C 99 % 1032,7 hPa 0,0 l/m 1,7 km/h (1 Bft) O-NO 75 0 min 0,000 mm 0,0 UV-I 0 W/m -0,6 C -0,5 C 3,2 km/h (1 Bft) 100,00 %
24.12.2016 00:20 -0,5 C 99 % 1032,7 hPa 0,0 l/m 1,8 km/h (1 Bft) O-SO 122 0 min 0,000 mm 0,0 UV-I 0 W/m -0,6 C -0,5 C 4,8 km/h (1 Bft) 100,00 %
24.12.2016 00:22 -0,5 C 99 % 1032,7 hPa 0,0 l/m 1,2 km/h (1 Bft) O-SO 122 0 min 0,000 mm 0,0 UV-I 0 W/m -0,6 C -0,5 C 3,2 km/h (1 Bft) 100,00 %
24.12.2016 00:24 -0,5 C 99 % 1032,7 hPa 0,0 l/m 3,1 km/h (1 Bft) O-SO 113 0 min 0,000 mm 0,0 UV-I 0 W/m -0,6 C -0,5 C 4,8 km/h (1 Bft) 100,00 %
24.12.2016 00:26 -0,5 C 99 % 1032,6 hPa 0,0 l/m 1,9 km/h (1 Bft) SO 127 0 min 0,000 mm 0,0 UV-I 0 W/m -0,6 C -0,5 C 4,8 km/h (1 Bft) 100,00 %
24.12.2016 00:28 -0,5 C 99 % 1032,6 hPa 0,0 l/m 2,0 km/h (1 Bft) SO 127 0 min 0,000 mm 0,0 UV-I 0 W/m -0,6 C -0,5 C 4,8 km/h (1 Bft) 100,00 %
24.12.2016 00:30 -0,5 C 99 % 1032,6 hPa 0,0 l/m 1,7 km/h (1 Bft) SO 127 0 min 0,000 mm 0,0 UV-I 0 W/m -0,6 C -0,5 C 3,2 km/h (1 Bft) 100,00 %
24.12.2016 00:32 -0,5 C 99 % 1032,6 hPa 0,0 l/m 0,5 km/h (0 Bft) SO 127 0 min 0,000 mm 0,0 UV-I 0 W/m -0,6 C -0,5 C 1,6 km/h (1 Bft) 100,00 %
24.12.2016 00:34 -0,5 C 99 % 1032,6 hPa 0,0 l/m 0,7 km/h (0 Bft) SO 127 0 min 0,000 mm 0,0 UV-I 0 W/m -0,6 C -0,5 C 3,2 km/h (1 Bft) 100,00 %
24.12.2016 00:36 -0,5 C 99 % 1032,6 hPa 0,0 l/m 0,7 km/h (0 Bft) SO 127 0 min 0,000 mm 0,0 UV-I 0 W/m -0,6 C -0,5 C 3,2 km/h (1 Bft) 97,87 %
24.12.2016 00:38 -0,5 C 99 % 1032,5 hPa 0,0 l/m 1,8 km/h (1 Bft) SO 127 0 min 0,000 mm 0,0 UV-I 0 W/m -0,6 C -0,5 C 3,2 km/h (1 Bft) 100,00 %
24.12.2016 00:40 -0,5 C 99 % 1032,5 hPa 0,0 l/m 1,8 km/h (1 Bft) SO 127 0 min 0,000 mm 0,0 UV-I 0 W/m -0,6 C -0,5 C 3,2 km/h (1 Bft) 98,00 %
24.12.2016 00:42 -0,5 C 99 % 1032,5 hPa 0,0 l/m 1,9 km/h (1 Bft) SO 127 0 min 0,000 mm 0,0 UV-I 0 W/m -0,6 C -0,5 C 3,2 km/h (1 Bft) 96,00 %
24.12.2016 00:44 -0,5 C 99 % 1032,5 hPa 0,0 l/m 2,6 km/h (1 Bft) O-SO 123 0 min 0,000 mm 0,0 UV-I 0 W/m -0,6 C -0,5 C 4,8 km/h (1 Bft) 97,44 %
24.12.2016 00:46 -0,5 C 99 % 1032,5 hPa 0,0 l/m 2,1 km/h (1 Bft) O-SO 123 0 min 0,000 mm 0,0 UV-I 0 W/m -0,6 C -0,5 C 3,2 km/h (1 Bft) 98,21 %
24.12.2016 00:48 -0,5 C 99 % 1032,4 hPa 0,0 l/m 1,2 km/h (1 Bft) O-SO 123 0 min 0,000 mm 0,0 UV-I 0 W/m -0,6 C -0,5 C 3,2 km/h (1 Bft) 95,12 %
24.12.2016 00:50 -0,5 C 99 % 1032,4 hPa 0,0 l/m 1,1 km/h (1 Bft) O-SO 123 0 min 0,000 mm 0,0 UV-I 0 W/m -0,6 C -0,5 C 1,6 km/h (1 Bft) 98,00 %
24.12.2016 00:52 -0,5 C 99 % 1032,4 hPa 0,0 l/m 2,1 km/h (1 Bft) O-SO 123 0 min 0,000 mm 0,0 UV-I 0 W/m -0,6 C -0,5 C 4,8 km/h (1 Bft) 97,56 %
24.12.2016 00:54 -0,5 C 99 % 1032,4 hPa 0,0 l/m 1,5 km/h (1 Bft) O-SO 123 0 min 0,000 mm 0,0 UV-I 0 W/m -0,6 C -0,5 C 3,2 km/h (1 Bft) 97,87 %
24.12.2016 00:56 -0,4 C 99 % 1032,3 hPa 0,0 l/m 0,0 km/h (0 Bft) O-SO 123 0 min 0,000 mm 0,0 UV-I 0 W/m -0,5 C -0,4 C 0,0 km/h (0 Bft) 98,00 %
24.12.2016 00:58 -0,4 C 99 % 1032,2 hPa 0,0 l/m 0,6 km/h (0 Bft) O-SO 123 0 min 0,000 mm 0,0 UV-I 0 W/m -0,5 C -0,4 C 4,8 km/h (1 Bft) 92,00 %
24.12.2016 01:00 -0,4 C 99 % 1032,2 hPa 0,0 l/m 1,0 km/h (0 Bft) O-SO 123 0 min 0,000 mm 0,0 UV-I 0 W/m -0,5 C -0,4 C 3,2 km/h (1 Bft) 97,56 %
24.12.2016 01:02 -0,4 C 99 % 1032,2 hPa 0,0 l/m 1,8 km/h (1 Bft) SO 124 0 min 0,000 mm 0,0 UV-I 0 W/m -0,5 C -0,4 C 3,2 km/h (1 Bft) 95,12 %
24.12.2016 01:04 -0,5 C 99 % 1032,2 hPa 0,0 l/m 3,2 km/h (1 Bft) O-SO 122 0 min 0,000 mm 0,0 UV-I 0 W/m -0,6 C -0,5 C 4,8 km/h (1 Bft) 95,08 %
24.12.2016 01:06 -0,4 C 99 % 1032,2 hPa 0,0 l/m 2,3 km/h (1 Bft) O-SO 123 0 min 0,000 mm 0,0 UV-I 0 W/m -0,5 C -0,4 C 4,8 km/h (1 Bft) 97,92 %
24.12.2016 01:08 -0,4 C 99 % 1032,3 hPa 0,0 l/m 2,3 km/h (1 Bft) S 171 0 min 0,000 mm 0,0 UV-I 0 W/m -0,5 C -0,4 C 6,4 km/h (2 Bft) 97,37 %
24.12.2016 01:10 -0,4 C 99 % 1032,2 hPa 0,0 l/m 1,1 km/h (1 Bft) S 171 0 min 0,000 mm 0,0 UV-I 0 W/m -0,5 C -0,4 C 3,2 km/h (1 Bft) 97,73 %
24.12.2016 01:12 -0,4 C 99 % 1032,2 hPa 0,0 l/m 1,5 km/h (1 Bft) S 171 0 min 0,000 mm 0,0 UV-I 0 W/m -0,5 C -0,4 C 3,2 km/h (1 Bft) 98,11 %
24.12.2016 01:14 -0,4 C 99 % 1032,2 hPa 0,0 l/m 1,1 km/h (1 Bft) S 171 0 min 0,000 mm 0,0 UV-I 0 W/m -0,5 C -0,4 C 3,2 km/h (1 Bft) 100,00 %
24.12.2016 01:16 -0,4 C 99 % 1032,1 hPa 0,0 l/m 2,9 km/h (1 Bft) SO 136 0 min 0,000 mm 0,0 UV-I 0 W/m -0,5 C -0,4 C 6,4 km/h (2 Bft) 100,00 %
24.12.2016 01:18 -0,4 C 99 % 1032,1 hPa 0,0 l/m 1,0 km/h (0 Bft) SO 136 0 min 0,000 mm 0,0 UV-I 0 W/m -0,5 C -0,4 C 3,2 km/h (1 Bft) 97,37 %
24.12.2016 01:20 -0,4 C 99 % 1032,2 hPa 0,0 l/m 0,4 km/h (0 Bft) SO 136 0 min 0,000 mm 0,0 UV-I 0 W/m -0,5 C -0,4 C 1,6 km/h (1 Bft) 100,00 %
24.12.2016 01:22 -0,4 C 99 % 1032,2 hPa 0,0 l/m 1,6 km/h (1 Bft) SO 136 0 min 0,000 mm 0,0 UV-I 0 W/m -0,5 C -0,4 C 3,2 km/h (1 Bft) 100,00 %
24.12.2016 01:24 -0,4 C 99 % 1032,1 hPa 0,0 l/m 0,4 km/h (0 Bft) SO 136 0 min 0,000 mm 0,0 UV-I 0 W/m -0,5 C -0,4 C 3,2 km/h (1 Bft) 100,00 %
24.12.2016 01:26 -0,4 C 99 % 1032,2 hPa 0,0 l/m 0,1 km/h (0 Bft) SO 136 0 min 0,000 mm 0,0 UV-I 0 W/m -0,5 C -0,4 C 1,6 km/h (1 Bft) 100,00 %
24.12.2016 01:28 -0,4 C 99 % 1032,3 hPa 0,0 l/m 2,3 km/h (1 Bft) S-SO 162 0 min 0,000 mm 0,0 UV-I 0 W/m -0,5 C -0,4 C 3,2 km/h (1 Bft) 100,00 %
24.12.2016 01:30 -0,4 C 99 % 1032,1 hPa 0,0 l/m 1,0 km/h (0 Bft) S-SO 162 0 min 0,000 mm 0,0 UV-I 0 W/m -0,5 C -0,4 C 3,2 km/h (1 Bft) 97,37 %
24.12.2016 01:32 -0,4 C 99 % 1032,1 hPa 0,0 l/m 3,0 km/h (1 Bft) S-SO 155 0 min 0,000 mm 0,0 UV-I 0 W/m -0,5 C -0,4 C 6,4 km/h (2 Bft) 100,00 %
24.12.2016 01:34 -0,4 C 99 % 1032,1 hPa 0,0 l/m 1,8 km/h (1 Bft) S-SO 155 0 min 0,000 mm 0,0 UV-I 0 W/m -0,5 C -0,4 C 3,2 km/h (1 Bft) 100,00 %
24.12.2016 01:36 -0,4 C 99 % 1032,1 hPa 0,0 l/m 1,0 km/h (0 Bft) S-SO 155 0 min 0,000 mm 0,0 UV-I 0 W/m -0,5 C -0,4 C 4,8 km/h (1 Bft) 100,00 %
24.12.2016 01:38 -0,4 C 99 % 1032,0 hPa 0,0 l/m 0,0 km/h (0 Bft) S-SO 155 0 min 0,000 mm 0,0 UV-I 0 W/m -0,5 C -0,4 C 1,6 km/h (1 Bft) 100,00 %
24.12.2016 01:40 -0,4 C 99 % 1032,1 hPa 0,0 l/m 0,0 km/h (0 Bft) S-SO 155 0 min 0,000 mm 0,0 UV-I 0 W/m -0,5 C -0,4 C 1,6 km/h (1 Bft) 100,00 %
24.12.2016 01:42 -0,4 C 99 % 1032,1 hPa 0,0 l/m 1,8 km/h (1 Bft) S-SO 155 0 min 0,000 mm 0,0 UV-I 0 W/m -0,5 C -0,4 C 3,2 km/h (1 Bft) 100,00 %
24.12.2016 01:44 -0,4 C 99 % 1032,0 hPa 0,0 l/m 0,7 km/h (0 Bft) S-SO 155 0 min 0,000 mm 0,0 UV-I 0 W/m -0,5 C -0,4 C 3,2 km/h (1 Bft) 100,00 %
24.12.2016 01:46 -0,4 C 99 % 1032,0 hPa 0,0 l/m 0,1 km/h (0 Bft) S-SO 155 0 min 0,000 mm 0,0 UV-I 0 W/m -0,5 C -0,4 C 1,6 km/h (1 Bft) 100,00 %
24.12.2016 01:48 -0,4 C 99 % 1032,0 hPa 0,0 l/m 1,5 km/h (1 Bft) S-SO 155 0 min 0,000 mm 0,0 UV-I 0 W/m -0,5 C -0,4 C 3,2 km/h (1 Bft) 100,00 %
24.12.2016 01:50 -0,4 C 99 % 1032,0 hPa 0,0 l/m 0,4 km/h (0 Bft) S-SO 155 0 min 0,000 mm 0,0 UV-I 0 W/m -0,5 C -0,4 C 1,6 km/h (1 Bft) 100,00 %
24.12.2016 01:52 -0,4 C 99 % 1032,1 hPa 0,0 l/m 0,0 km/h (0 Bft) S-SO 155 0 min 0,000 mm 0,0 UV-I 0 W/m -0,5 C -0,4 C 0,0 km/h (0 Bft) 100,00 %
24.12.2016 01:54 -0,4 C 99 % 1032,2 hPa 0,0 l/m 0,0 km/h (0 Bft) S-SO 155 0 min 0,000 mm 0,0 UV-I 0 W/m -0,5 C -0,4 C 0,0 km/h (0 Bft) 100,00 %
24.12.2016 01:56 -0,4 C 99 % 1032,2 hPa 0,0 l/m 0,0 km/h (0 Bft) S-SO 155 0 min 0,000 mm 0,0 UV-I 0 W/m -0,5 C -0,4 C 1,6 km/h (1 Bft) 100,00 %
24.12.2016 01:58 -0,4 C 99 % 1032,2 hPa 0,0 l/m 0,0 km/h (0 Bft) S-SO 155 0 min 0,000 mm 0,0 UV-I 0 W/m -0,5 C -0,4 C 0,0 km/h (0 Bft) 100,00 %
24.12.2016 02:00 -0,4 C 99 % 1032,3 hPa 0,0 l/m 0,0 km/h (0 Bft) S-SO 155 0 min 0,000 mm 0,0 UV-I 0 W/m -0,5 C -0,4 C 0,0 km/h (0 Bft) 100,00 %
24.12.2016 02:02 -0,4 C 99 % 1032,3 hPa 0,0 l/m 0,0 km/h (0 Bft) S-SO 155 0 min 0,000 mm 0,0 UV-I 0 W/m -0,5 C -0,4 C 0,0 km/h (0 Bft) 100,00 %
24.12.2016 02:04 -0,4 C 99 % 1032,4 hPa 0,0 l/m 0,3 km/h (0 Bft) S-SO 155 0 min 0,000 mm 0,0 UV-I 0 W/m -0,5 C -0,4 C 1,6 km/h (1 Bft) 100,00 %
24.12.2016 02:06 -0,4 C 99 % 1032,4 hPa 0,0 l/m 0,6 km/h (0 Bft) S-SO 155 0 min 0,000 mm 0,0 UV-I 0 W/m -0,5 C -0,4 C 1,6 km/h (1 Bft) 100,00 %
24.12.2016 02:08 -0,5 C 99 % 1032,3 hPa 0,0 l/m 1,3 km/h (1 Bft) S-SO 155 0 min 0,000 mm 0,0 UV-I 0 W/m -0,6 C -0,5 C 3,2 km/h (1 Bft) 96,67 %
24.12.2016 02:10 -0,5 C 99 % 1032,3 hPa 0,0 l/m 1,9 km/h (1 Bft) S-SO 155 0 min 0,000 mm 0,0 UV-I 0 W/m -0,6 C -0,5 C 3,2 km/h (1 Bft) 98,11 %
24.12.2016 02:12 -0,5 C 99 % 1032,3 hPa 0,0 l/m 1,8 km/h (1 Bft) S-SO 155 0 min 0,000 mm 0,0 UV-I 0 W/m -0,6 C -0,5 C 3,2 km/h (1 Bft) 100,00 %
24.12.2016 02:14 -0,5 C 99 % 1032,3 hPa 0,0 l/m 1,1 km/h (1 Bft) S-SO 155 0 min 0,000 mm 0,0 UV-I 0 W/m -0,6 C -0,5 C 3,2 km/h (1 Bft) 100,00 %
24.12.2016 02:16 -0,6 C 99 % 1032,3 hPa 0,0 l/m 0,9 km/h (0 Bft) S-SO 155 0 min 0,000 mm 0,0 UV-I 0 W/m -0,7 C -0,6 C 3,2 km/h (1 Bft) 100,00 %
24.12.2016 02:18 -0,6 C 99 % 1032,3 hPa 0,0 l/m 1,5 km/h (1 Bft) S-SO 155 0 min 0,000 mm 0,0 UV-I 0 W/m -0,7 C -0,6 C 3,2 km/h (1 Bft) 100,00 %
24.12.2016 02:20 -0,6 C 99 % 1032,3 hPa 0,0 l/m 0,0 km/h (0 Bft) S-SO 155 0 min 0,000 mm 0,0 UV-I 0 W/m -0,7 C -0,6 C 0,0 km/h (0 Bft) 100,00 %
24.12.2016 02:22 -0,6 C 99 % 1032,4 hPa 0,0 l/m 1,6 km/h (1 Bft) S 178 0 min 0,000 mm 0,0 UV-I 0 W/m -0,7 C -0,6 C 3,2 km/h (1 Bft) 100,00 %
24.12.2016 02:24 -0,5 C 99 % 1032,5 hPa 0,0 l/m 4,0 km/h (1 Bft) SW 229 0 min 0,000 mm 0,0 UV-I 0 W/m -0,6 C -0,5 C 4,8 km/h (1 Bft) 100,00 %
24.12.2016 02:26 -0,5 C 99 % 1032,6 hPa 0,0 l/m 2,7 km/h (1 Bft) SW 232 0 min 0,000 mm 0,0 UV-I 0 W/m -0,6 C -0,5 C 4,8 km/h (1 Bft) 100,00 %
24.12.2016 02:28 -0,6 C 99 % 1032,5 hPa 0,0 l/m 1,4 km/h (1 Bft) SW 232 0 min 0,000 mm 0,0 UV-I 0 W/m -0,7 C -0,6 C 3,2 km/h (1 Bft) 98,11 %
24.12.2016 02:30 -0,6 C 99 % 1032,5 hPa 0,0 l/m 2,6 km/h (1 Bft) SW 229 0 min 0,000 mm 0,0 UV-I 0 W/m -0,7 C -0,6 C 4,8 km/h (1 Bft) 97,73 %
24.12.2016 02:32 -0,6 C 99 % 1032,4 hPa 0,0 l/m 1,0 km/h (0 Bft) SW 229 0 min 0,000 mm 0,0 UV-I 0 W/m -0,7 C -0,6 C 3,2 km/h (1 Bft) 100,00 %
24.12.2016 02:34 -0,6 C 99 % 1032,4 hPa 0,0 l/m 2,1 km/h (1 Bft) SW 229 0 min 0,000 mm 0,0 UV-I 0 W/m -0,7 C -0,6 C 4,8 km/h (1 Bft) 100,00 %
24.12.2016 02:36 -0,6 C 99 % 1032,4 hPa 0,0 l/m 3,1 km/h (1 Bft) W-SW 242 0 min 0,000 mm 0,0 UV-I 0 W/m -0,7 C -0,6 C 6,4 km/h (2 Bft) 100,00 %
24.12.2016 02:38 -0,6 C 99 % 1032,5 hPa 0,0 l/m 3,1 km/h (1 Bft) SW 235 0 min 0,000 mm 0,0 UV-I 0 W/m -0,7 C -0,6 C 4,8 km/h (1 Bft) 98,08 %
24.12.2016 02:40 -0,6 C 99 % 1032,4 hPa 0,0 l/m 4,8 km/h (1 Bft) S-SW 207 0 min 0,000 mm 0,0 UV-I 0 W/m -0,7 C -0,6 C 6,4 km/h (2 Bft) 100,00 %
24.12.2016 02:42 -0,6 C 99 % 1032,3 hPa 0,0 l/m 3,3 km/h (1 Bft) S-SW 204 0 min 0,000 mm 0,0 UV-I 0 W/m -0,7 C -0,6 C 4,8 km/h (1 Bft) 100,00 %
24.12.2016 02:44 -0,6 C 99 % 1032,3 hPa 0,0 l/m 3,0 km/h (1 Bft) S-SW 205 0 min 0,000 mm 0,0 UV-I 0 W/m -0,7 C -0,6 C 4,8 km/h (1 Bft) 94,74 %
24.12.2016 02:46 -0,6 C 99 % 1032,3 hPa 0,0 l/m 2,8 km/h (1 Bft) S-SW 213 0 min 0,000 mm 0,0 UV-I 0 W/m -0,7 C -0,6 C 4,8 km/h (1 Bft) 96,43 %
24.12.2016 02:48 -0,6 C 99 % 1032,3 hPa 0,0 l/m 1,6 km/h (1 Bft) S-SW 213 0 min 0,000 mm 0,0 UV-I 0 W/m -0,7 C -0,6 C 3,2 km/h (1 Bft) 97,87 %
24.12.2016 02:50 -0,6 C 99 % 1032,2 hPa 0,0 l/m 4,1 km/h (1 Bft) S-SW 212 0 min 0,000 mm 0,0 UV-I 0 W/m -0,7 C -0,6 C 6,4 km/h (2 Bft) 92,00 %
24.12.2016 02:52 -0,6 C 99 % 1032,2 hPa 0,0 l/m 4,3 km/h (1 Bft) S-SW 212 0 min 0,000 mm 0,0 UV-I 0 W/m -0,7 C -0,6 C 6,4 km/h (2 Bft) 98,11 %
24.12.2016 02:54 -0,6 C 99 % 1032,2 hPa 0,0 l/m 3,0 km/h (1 Bft) S 188 0 min 0,000 mm 0,0 UV-I 0 W/m -0,7 C -0,6 C 4,8 km/h (1 Bft) 97,87 %
24.12.2016 02:56 -0,6 C 99 % 1032,2 hPa 0,0 l/m 2,5 km/h (1 Bft) S 188 0 min 0,000 mm 0,0 UV-I 0 W/m -0,7 C -0,6 C 3,2 km/h (1 Bft) 95,24 %
24.12.2016 02:58 -0,7 C 99 % 1032,2 hPa 0,0 l/m 2,7 km/h (1 Bft) S-SW 201 0 min 0,000 mm 0,0 UV-I 0 W/m -0,8 C -0,7 C 4,8 km/h (1 Bft) 95,45 %
24.12.2016 03:00 -0,6 C 99 % 1032,2 hPa 0,0 l/m 5,6 km/h (1 Bft) S-SW 211 0 min 0,000 mm 0,0 UV-I 0 W/m -0,7 C -0,6 C 8,0 km/h (2 Bft) 97,73 %
24.12.2016 03:02 -0,7 C 99 % 1032,2 hPa 0,0 l/m 4,8 km/h (1 Bft) S-SW 209 0 min 0,000 mm 0,0 UV-I 0 W/m -0,8 C -0,7 C 8,0 km/h (2 Bft) 94,00 %
24.12.2016 03:04 -0,7 C 99 % 1032,2 hPa 0,0 l/m 3,9 km/h (1 Bft) S 190 0 min 0,000 mm 0,0 UV-I 0 W/m -0,8 C -0,7 C 6,4 km/h (2 Bft) 98,00 %
24.12.2016 03:06 -0,7 C 99 % 1032,1 hPa 0,0 l/m 2,5 km/h (1 Bft) S-SW 196 0 min 0,000 mm 0,0 UV-I 0 W/m -0,8 C -0,7 C 4,8 km/h (1 Bft) 97,87 %
24.12.2016 03:08 -0,7 C 99 % 1032,2 hPa 0,0 l/m 3,5 km/h (1 Bft) S-SW 209 0 min 0,000 mm 0,0 UV-I 0 W/m -0,8 C -0,7 C 6,4 km/h (2 Bft) 97,87 %
24.12.2016 03:10 -0,7 C 99 % 1032,2 hPa 0,0 l/m 3,8 km/h (1 Bft) S-SW 207 0 min 0,000 mm 0,0 UV-I 0 W/m -0,8 C -0,7 C 6,4 km/h (2 Bft) 97,37 %
24.12.2016 03:12 -0,7 C 99 % 1032,3 hPa 0,0 l/m 3,2 km/h (1 Bft) S-SW 208 0 min 0,000 mm 0,0 UV-I 0 W/m -0,8 C -0,7 C 4,8 km/h (1 Bft) 98,21 %
24.12.2016 03:14 -0,7 C 99 % 1032,3 hPa 0,0 l/m 4,3 km/h (1 Bft) SW 231 0 min 0,000 mm 0,0 UV-I 0 W/m -0,8 C -0,7 C 6,4 km/h (2 Bft) 98,00 %
24.12.2016 03:16 -0,7 C 99 % 1032,3 hPa 0,0 l/m 3,6 km/h (1 Bft) W-SW 237 0 min 0,000 mm 0,0 UV-I 0 W/m -0,8 C -0,7 C 4,8 km/h (1 Bft) 93,62 %
24.12.2016 03:18 -0,7 C 99 % 1032,4 hPa 0,0 l/m 4,9 km/h (1 Bft) SW 235 0 min 0,000 mm 0,0 UV-I 0 W/m -0,8 C -0,7 C 6,4 km/h (2 Bft) 100,00 %
24.12.2016 03:20 -0,8 C 99 % 1032,4 hPa 0,0 l/m 5,7 km/h (1 Bft) SW 218 0 min 0,000 mm 0,0 UV-I 0 W/m -0,9 C -0,8 C 8,0 km/h (2 Bft) 100,00 %
24.12.2016 03:22 -0,8 C 99 % 1032,4 hPa 0,0 l/m 3,6 km/h (1 Bft) W-SW 246 0 min 0,000 mm 0,0 UV-I 0 W/m -0,9 C -0,8 C 6,4 km/h (2 Bft) 97,87 %
24.12.2016 03:24 -0,8 C 99 % 1032,4 hPa 0,0 l/m 3,7 km/h (1 Bft) W-SW 254 0 min 0,000 mm 0,0 UV-I 0 W/m -0,9 C -0,8 C 6,4 km/h (2 Bft) 100,00 %
24.12.2016 03:26 -0,8 C 99 % 1032,3 hPa 0,0 l/m 3,2 km/h (1 Bft) W-SW 240 0 min 0,000 mm 0,0 UV-I 0 W/m -0,9 C -0,8 C 4,8 km/h (1 Bft) 97,73 %
24.12.2016 03:28 -0,8 C 99 % 1032,3 hPa 0,0 l/m 3,7 km/h (1 Bft) W 259 0 min 0,000 mm 0,0 UV-I 0 W/m -0,9 C -0,8 C 4,8 km/h (1 Bft) 96,00 %
24.12.2016 03:30 -0,8 C 99 % 1032,3 hPa 0,0 l/m 4,9 km/h (1 Bft) W-SW 251 0 min 0,000 mm 0,0 UV-I 0 W/m -0,9 C -0,8 C 6,4 km/h (2 Bft) 98,00 %
24.12.2016 03:32 -0,8 C 99 % 1032,3 hPa 0,0 l/m 2,5 km/h (1 Bft) W-SW 251 0 min 0,000 mm 0,0 UV-I 0 W/m -0,9 C -0,8 C 4,8 km/h (1 Bft) 97,87 %
24.12.2016 03:34 -0,8 C 99 % 1032,3 hPa 0,0 l/m 1,7 km/h (1 Bft) W 280 0 min 0,000 mm 0,0 UV-I 0 W/m -0,9 C -0,8 C 3,2 km/h (1 Bft) 100,00 %
24.12.2016 03:36 -0,8 C 99 % 1032,4 hPa 0,0 l/m 2,8 km/h (1 Bft) W-SW 258 0 min 0,000 mm 0,0 UV-I 0 W/m -0,9 C -0,8 C 6,4 km/h (2 Bft) 100,00 %
24.12.2016 03:38 -0,8 C 99 % 1032,3 hPa 0,0 l/m 1,7 km/h (1 Bft) W-SW 258 0 min 0,000 mm 0,0 UV-I 0 W/m -0,9 C -0,8 C 4,8 km/h (1 Bft) 100,00 %
24.12.2016 03:40 -0,8 C 99 % 1032,3 hPa 0,0 l/m 3,9 km/h (1 Bft) W 259 0 min 0,000 mm 0,0 UV-I 0 W/m -0,9 C -0,8 C 6,4 km/h (2 Bft) 98,11 %
24.12.2016 03:42 -0,8 C 99 % 1032,3 hPa 0,0 l/m 3,2 km/h (1 Bft) W 274 0 min 0,000 mm 0,0 UV-I 0 W/m -0,9 C -0,8 C 6,4 km/h (2 Bft) 100,00 %
24.12.2016 03:44 -0,8 C 99 % 1032,2 hPa 0,0 l/m 5,2 km/h (1 Bft) W-SW 238 0 min 0,000 mm 0,0 UV-I 0 W/m -0,9 C -0,8 C 8,0 km/h (2 Bft) 100,00 %
24.12.2016 03:46 -0,8 C 99 % 1032,3 hPa 0,0 l/m 7,1 km/h (2 Bft) W 261 0 min 0,000 mm 0,0 UV-I 0 W/m -0,9 C -1,5 C 11,3 km/h (2 Bft) 98,21 %
24.12.2016 03:48 -0,8 C 99 % 1032,2 hPa 0,0 l/m 4,5 km/h (1 Bft) W-SW 246 0 min 0,000 mm 0,0 UV-I 0 W/m -0,9 C -0,8 C 8,0 km/h (2 Bft) 100,00 %
24.12.2016 03:50 -0,8 C 99 % 1032,2 hPa 0,0 l/m 4,8 km/h (1 Bft) W-SW 251 0 min 0,000 mm 0,0 UV-I 0 W/m -0,9 C -0,8 C 6,4 km/h (2 Bft) 97,87 %
24.12.2016 03:52 -0,8 C 99 % 1032,2 hPa 0,0 l/m 3,1 km/h (1 Bft) W 259 0 min 0,000 mm 0,0 UV-I 0 W/m -0,9 C -0,8 C 4,8 km/h (1 Bft) 100,00 %
24.12.2016 03:54 -0,8 C 99 % 1032,2 hPa 0,0 l/m 1,2 km/h (1 Bft) W 259 0 min 0,000 mm 0,0 UV-I 0 W/m -0,9 C -0,8 C 4,8 km/h (1 Bft) 100,00 %
24.12.2016 03:56 -0,8 C 99 % 1032,2 hPa 0,0 l/m 4,9 km/h (1 Bft) W-SW 245 0 min 0,000 mm 0,0 UV-I 0 W/m -0,9 C -0,8 C 8,0 km/h (2 Bft) 100,00 %
24.12.2016 03:58 -0,8 C 99 % 1032,2 hPa 0,0 l/m 5,3 km/h (1 Bft) W-SW 243 0 min 0,000 mm 0,0 UV-I 0 W/m -0,9 C -0,8 C 8,0 km/h (2 Bft) 98,00 %
24.12.2016 04:00 -0,8 C 99 % 1032,2 hPa 0,0 l/m 4,7 km/h (1 Bft) W-SW 250 0 min 0,000 mm 0,0 UV-I 0 W/m -0,9 C -0,8 C 6,4 km/h (2 Bft) 100,00 %
24.12.2016 04:05 -0,8 C 99 % 1031,9 hPa 0,0 l/m 3,2 km/h (1 Bft) S-SW 202 0 min 0,000 mm 0,0 UV-I 0 W/m -0,9 C -0,8 C 4,8 km/h (1 Bft) 80,70 %
24.12.2016 04:12 -0,8 C 99 % 1032,2 hPa 0,0 l/m 3,4 km/h (1 Bft) W-SW 253 0 min 0,000 mm 0,0 UV-I 0 W/m -0,9 C -0,8 C 6,4 km/h (2 Bft) 0,00 %
24.12.2016 04:14 -0,8 C 99 % 1032,1 hPa 0,0 l/m 3,3 km/h (1 Bft) W-SW 253 0 min 0,000 mm 0,0 UV-I 0 W/m -0,9 C -0,8 C 4,8 km/h (1 Bft) 0,00 %
24.12.2016 04:16 -0,8 C 99 % 1032,1 hPa 0,0 l/m 2,5 km/h (1 Bft) W-SW 253 0 min 0,000 mm 0,0 UV-I 0 W/m -0,9 C -0,8 C 4,8 km/h (1 Bft) 0,00 %
24.12.2016 04:18 -0,8 C 99 % 1032,0 hPa 0,0 l/m 2,7 km/h (1 Bft) W-SW 251 0 min 0,000 mm 0,0 UV-I 0 W/m -0,9 C -0,8 C 4,8 km/h (1 Bft) 0,00 %
24.12.2016 04:20 -0,8 C 99 % 1032,0 hPa 0,0 l/m 3,6 km/h (1 Bft) W-SW 239 0 min 0,000 mm 0,0 UV-I 0 W/m -0,9 C -0,8 C 6,4 km/h (2 Bft) 0,00 %
24.12.2016 04:22 -0,8 C 99 % 1031,9 hPa 0,0 l/m 4,7 km/h (1 Bft) SW 232 0 min 0,000 mm 0,0 UV-I 0 W/m -0,9 C -0,8 C 6,4 km/h (2 Bft) 0,00 %
24.12.2016 04:24 -0,8 C 99 % 1031,8 hPa 0,0 l/m 3,5 km/h (1 Bft) S-SW 194 0 min 0,000 mm 0,0 UV-I 0 W/m -0,9 C -0,8 C 6,4 km/h (2 Bft) 0,00 %
24.12.2016 04:26 -0,7 C 99 % 1031,7 hPa 0,0 l/m 3,8 km/h (1 Bft) S-SW 197 0 min 0,000 mm 0,0 UV-I 0 W/m -0,8 C -0,7 C 4,8 km/h (1 Bft) 1,64 %
24.12.2016 04:28 -0,7 C 99 % 1031,7 hPa 0,0 l/m 2,7 km/h (1 Bft) S 190 0 min 0,000 mm 0,0 UV-I 0 W/m -0,8 C -0,7 C 4,8 km/h (1 Bft) 100,00 %
24.12.2016 04:30 -0,7 C 99 % 1031,8 hPa 0,0 l/m 1,9 km/h (1 Bft) S-SW 194 0 min 0,000 mm 0,0 UV-I 0 W/m -0,8 C -0,7 C 3,2 km/h (1 Bft) 97,87 %
24.12.2016 04:32 -0,7 C 99 % 1031,9 hPa 0,0 l/m 1,7 km/h (1 Bft) S-SW 194 0 min 0,000 mm 0,0 UV-I 0 W/m -0,8 C -0,7 C 3,2 km/h (1 Bft) 97,73 %
24.12.2016 04:34 -0,7 C 99 % 1031,9 hPa 0,0 l/m 0,3 km/h (0 Bft) S-SW 194 0 min 0,000 mm 0,0 UV-I 0 W/m -0,8 C -0,7 C 1,6 km/h (1 Bft) 100,00 %
24.12.2016 04:36 -0,6 C 99 % 1031,8 hPa 0,0 l/m 0,3 km/h (0 Bft) S-SW 194 0 min 0,000 mm 0,0 UV-I 0 W/m -0,7 C -0,6 C 1,6 km/h (1 Bft) 97,87 %
24.12.2016 04:38 -0,6 C 99 % 1031,8 hPa 0,0 l/m 0,5 km/h (0 Bft) S-SW 194 0 min 0,000 mm 0,0 UV-I 0 W/m -0,7 C -0,6 C 1,6 km/h (1 Bft) 100,00 %
24.12.2016 04:40 -0,6 C 99 % 1031,9 hPa 0,0 l/m 0,9 km/h (0 Bft) S-SW 194 0 min 0,000 mm 0,0 UV-I 0 W/m -0,7 C -0,6 C 1,6 km/h (1 Bft) 100,00 %
24.12.2016 04:42 -0,6 C 99 % 1032,0 hPa 0,0 l/m 1,5 km/h (1 Bft) S-SW 201 0 min 0,000 mm 0,0 UV-I 0 W/m -0,7 C -0,6 C 3,2 km/h (1 Bft) 100,00 %
24.12.2016 04:44 -0,6 C 99 % 1032,0 hPa 0,0 l/m 1,5 km/h (1 Bft) S-SW 201 0 min 0,000 mm 0,0 UV-I 0 W/m -0,7 C -0,6 C 3,2 km/h (1 Bft) 100,00 %
24.12.2016 04:46 -0,6 C 99 % 1032,1 hPa 0,0 l/m 2,0 km/h (1 Bft) W-SW 238 0 min 0,000 mm 0,0 UV-I 0 W/m -0,7 C -0,6 C 3,2 km/h (1 Bft) 100,00 %
24.12.2016 04:48 -0,6 C 99 % 1032,0 hPa 0,0 l/m 0,9 km/h (0 Bft) W-SW 238 0 min 0,000 mm 0,0 UV-I 0 W/m -0,7 C -0,6 C 1,6 km/h (1 Bft) 97,87 %
24.12.2016 04:50 -0,6 C 99 % 1032,1 hPa 0,0 l/m 1,9 km/h (1 Bft) W-SW 250 0 min 0,000 mm 0,0 UV-I 0 W/m -0,7 C -0,6 C 3,2 km/h (1 Bft) 97,44 %
24.12.2016 04:52 -0,6 C 99 % 1032,1 hPa 0,0 l/m 0,9 km/h (0 Bft) W 280 0 min 0,000 mm 0,0 UV-I 0 W/m -0,7 C -0,6 C 3,2 km/h (1 Bft) 95,74 %
24.12.2016 04:54 -0,6 C 99 % 1032,2 hPa 0,0 l/m 0,3 km/h (0 Bft) W 280 0 min 0,000 mm 0,0 UV-I 0 W/m -0,7 C -0,6 C 1,6 km/h (1 Bft) 96,23 %
24.12.2016 04:56 -0,5 C 99 % 1032,3 hPa 0,0 l/m 1,0 km/h (0 Bft) W 280 0 min 0,000 mm 0,0 UV-I 0 W/m -0,6 C -0,5 C 1,6 km/h (1 Bft) 97,37 %
24.12.2016 04:58 -0,5 C 99 % 1032,2 hPa 0,0 l/m 2,1 km/h (1 Bft) W 280 0 min 0,000 mm 0,0 UV-I 0 W/m -0,6 C -0,5 C 3,2 km/h (1 Bft) 98,00 %
24.12.2016 05:00 -0,6 C 99 % 1032,3 hPa 0,0 l/m 2,7 km/h (1 Bft) W 279 0 min 0,000 mm 0,0 UV-I 0 W/m -0,7 C -0,6 C 3,2 km/h (1 Bft) 96,00 %
24.12.2016 05:02 -0,5 C 99 % 1032,3 hPa 0,0 l/m 1,8 km/h (1 Bft) W 279 0 min 0,000 mm 0,0 UV-I 0 W/m -0,6 C -0,5 C 3,2 km/h (1 Bft) 96,00 %
24.12.2016 05:04 -0,5 C 99 % 1032,4 hPa 0,0 l/m 2,4 km/h (1 Bft) W 279 0 min 0,000 mm 0,0 UV-I 0 W/m -0,6 C -0,5 C 3,2 km/h (1 Bft) 97,87 %
24.12.2016 05:06 -0,5 C 99 % 1032,4 hPa 0,0 l/m 2,9 km/h (1 Bft) W 279 0 min 0,000 mm 0,0 UV-I 0 W/m -0,6 C -0,5 C 4,8 km/h (1 Bft) 97,37 %
24.12.2016 05:08 -0,5 C 99 % 1032,4 hPa 0,0 l/m 4,7 km/h (1 Bft) W 265 0 min 0,000 mm 0,0 UV-I 0 W/m -0,6 C -0,5 C 9,7 km/h (2 Bft) 98,11 %
24.12.2016 05:10 -0,4 C 99 % 1032,5 hPa 0,0 l/m 3,7 km/h (1 Bft) W 273 0 min 0,000 mm 0,0 UV-I 0 W/m -0,5 C -0,4 C 6,4 km/h (2 Bft) 97,87 %
24.12.2016 05:12 -0,4 C 99 % 1032,5 hPa 0,0 l/m 2,5 km/h (1 Bft) W 271 0 min 0,000 mm 0,0 UV-I 0 W/m -0,5 C -0,4 C 4,8 km/h (1 Bft) 97,37 %
24.12.2016 05:14 -0,4 C 99 % 1032,5 hPa 0,0 l/m 4,1 km/h (1 Bft) W 281 0 min 0,000 mm 0,0 UV-I 0 W/m -0,5 C -0,4 C 6,4 km/h (2 Bft) 94,92 %
24.12.2016 05:16 -0,4 C 99 % 1032,5 hPa 0,0 l/m 3,1 km/h (1 Bft) W 274 0 min 0,000 mm 0,0 UV-I 0 W/m -0,5 C -0,4 C 4,8 km/h (1 Bft) 96,88 %
24.12.2016 05:18 -0,4 C 99 % 1032,6 hPa 0,0 l/m 4,2 km/h (1 Bft) W-NW 301 0 min 0,000 mm 0,0 UV-I 0 W/m -0,5 C -0,4 C 9,7 km/h (2 Bft) 98,21 %
24.12.2016 05:20 -0,4 C 99 % 1032,6 hPa 0,0 l/m 5,6 km/h (1 Bft) W-SW 252 0 min 0,000 mm 0,0 UV-I 0 W/m -0,5 C -0,4 C 9,7 km/h (2 Bft) 95,74 %
24.12.2016 05:22 -0,4 C 99 % 1032,7 hPa 0,0 l/m 4,6 km/h (1 Bft) W 259 0 min 0,000 mm 0,0 UV-I 0 W/m -0,5 C -0,4 C 11,3 km/h (2 Bft) 100,00 %
24.12.2016 05:24 -0,3 C 99 % 1032,6 hPa 0,0 l/m 4,9 km/h (1 Bft) W 281 0 min 0,000 mm 0,0 UV-I 0 W/m -0,4 C -0,3 C 9,7 km/h (2 Bft) 100,00 %
24.12.2016 05:26 -0,3 C 99 % 1032,5 hPa 0,0 l/m 8,2 km/h (2 Bft) W 272 0 min 0,000 mm 0,0 UV-I 0 W/m -0,4 C -2,2 C 12,9 km/h (3 Bft) 96,23 %
24.12.2016 05:28 -0,3 C 99 % 1032,5 hPa 0,0 l/m 6,0 km/h (2 Bft) SW 229 0 min 0,000 mm 0,0 UV-I 0 W/m -0,4 C -0,3 C 12,9 km/h (3 Bft) 97,44 %
24.12.2016 05:30 -0,3 C 99 % 1032,5 hPa 0,0 l/m 7,1 km/h (2 Bft) W 260 0 min 0,000 mm 0,0 UV-I 0 W/m -0,4 C -1,0 C 11,3 km/h (2 Bft) 100,00 %
24.12.2016 05:32 -0,3 C 99 % 1032,4 hPa 0,0 l/m 5,5 km/h (1 Bft) W 260 0 min 0,000 mm 0,0 UV-I 0 W/m -0,4 C -0,3 C 11,3 km/h (2 Bft) 100,00 %
24.12.2016 05:34 -0,3 C 99 % 1032,5 hPa 0,0 l/m 5,2 km/h (1 Bft) W-SW 254 0 min 0,000 mm 0,0 UV-I 0 W/m -0,4 C -0,3 C 11,3 km/h (2 Bft) 96,00 %
24.12.2016 05:36 -0,3 C 99 % 1032,4 hPa 0,0 l/m 5,7 km/h (1 Bft) SW 231 0 min 0,000 mm 0,0 UV-I 0 W/m -0,4 C -0,3 C 11,3 km/h (2 Bft) 100,00 %
24.12.2016 05:38 -0,3 C 99 % 1032,4 hPa 0,0 l/m 4,9 km/h (1 Bft) W 268 0 min 0,000 mm 0,0 UV-I 0 W/m -0,4 C -0,3 C 8,0 km/h (2 Bft) 100,00 %
24.12.2016 05:40 -0,3 C 99 % 1032,4 hPa 0,0 l/m 4,9 km/h (1 Bft) W 262 0 min 0,000 mm 0,0 UV-I 0 W/m -0,4 C -0,3 C 6,4 km/h (2 Bft) 100,00 %
24.12.2016 05:42 -0,3 C 99 % 1032,5 hPa 0,0 l/m 4,9 km/h (1 Bft) W 261 0 min 0,000 mm 0,0 UV-I 0 W/m -0,4 C -0,3 C 6,4 km/h (2 Bft) 100,00 %
24.12.2016 05:44 -0,3 C 99 % 1032,4 hPa 0,0 l/m 6,8 km/h (2 Bft) W-SW 243 0 min 0,000 mm 0,0 UV-I 0 W/m -0,4 C -0,7 C 14,5 km/h (3 Bft) 100,00 %
24.12.2016 05:46 -0,3 C 99 % 1032,4 hPa 0,0 l/m 4,8 km/h (1 Bft) SW 225 0 min 0,000 mm 0,0 UV-I 0 W/m -0,4 C -0,3 C 11,3 km/h (2 Bft) 100,00 %
24.12.2016 05:48 -0,3 C 99 % 1032,4 hPa 0,0 l/m 4,6 km/h (1 Bft) S-SW 213 0 min 0,000 mm 0,0 UV-I 0 W/m -0,4 C -0,3 C 6,4 km/h (2 Bft) 100,00 %
24.12.2016 05:50 -0,3 C 99 % 1032,3 hPa 0,0 l/m 4,9 km/h (1 Bft) SW 225 0 min 0,000 mm 0,0 UV-I 0 W/m -0,4 C -0,3 C 6,4 km/h (2 Bft) 100,00 %
24.12.2016 05:52 -0,3 C 99 % 1032,3 hPa 0,0 l/m 5,9 km/h (2 Bft) SW 220 0 min 0,000 mm 0,0 UV-I 0 W/m -0,4 C -0,3 C 8,0 km/h (2 Bft) 100,00 %
24.12.2016 05:54 -0,2 C 99 % 1032,4 hPa 0,0 l/m 4,7 km/h (1 Bft) W-SW 238 0 min 0,000 mm 0,0 UV-I 0 W/m -0,3 C -0,2 C 8,0 km/h (2 Bft) 98,21 %
24.12.2016 05:56 -0,2 C 99 % 1032,4 hPa 0,0 l/m 6,2 km/h (2 Bft) S-SW 208 0 min 0,000 mm 0,0 UV-I 0 W/m -0,3 C -0,2 C 8,0 km/h (2 Bft) 100,00 %
24.12.2016 05:58 -0,2 C 99 % 1032,5 hPa 0,0 l/m 5,7 km/h (1 Bft) W-SW 238 0 min 0,000 mm 0,0 UV-I 0 W/m -0,3 C -0,2 C 9,7 km/h (2 Bft) 100,00 %
24.12.2016 06:00 -0,2 C 99 % 1032,5 hPa 0,0 l/m 4,2 km/h (1 Bft) W-SW 244 0 min 0,000 mm 0,0 UV-I 0 W/m -0,3 C -0,2 C 8,0 km/h (2 Bft) 97,37 %
24.12.2016 06:02 -0,2 C 99 % 1032,4 hPa 0,0 l/m 3,4 km/h (1 Bft) SW 228 0 min 0,000 mm 0,0 UV-I 0 W/m -0,3 C -0,2 C 6,4 km/h (2 Bft) 98,00 %
24.12.2016 06:04 -0,2 C 99 % 1032,3 hPa 0,0 l/m 4,4 km/h (1 Bft) SW 230 0 min 0,000 mm 0,0 UV-I 0 W/m -0,3 C -0,2 C 6,4 km/h (2 Bft) 98,00 %
24.12.2016 06:06 -0,2 C 99 % 1032,3 hPa 0,0 l/m 3,6 km/h (1 Bft) SW 217 0 min 0,000 mm 0,0 UV-I 0 W/m -0,3 C -0,2 C 6,4 km/h (2 Bft) 97,62 %
24.12.2016 06:08 -0,2 C 99 % 1032,3 hPa 0,0 l/m 4,4 km/h (1 Bft) SW 215 0 min 0,000 mm 0,0 UV-I 0 W/m -0,3 C -0,2 C 8,0 km/h (2 Bft) 100,00 %
24.12.2016 06:10 -0,2 C 99 % 1032,3 hPa 0,0 l/m 5,4 km/h (1 Bft) S-SW 202 0 min 0,000 mm 0,0 UV-I 0 W/m -0,3 C -0,2 C 8,0 km/h (2 Bft) 98,00 %
24.12.2016 06:12 -0,2 C 99 % 1032,2 hPa 0,0 l/m 5,7 km/h (1 Bft) SW 217 0 min 0,000 mm 0,0 UV-I 0 W/m -0,3 C -0,2 C 8,0 km/h (2 Bft) 100,00 %
24.12.2016 06:14 -0,2 C 99 % 1032,1 hPa 0,0 l/m 4,4 km/h (1 Bft) S-SO 159 0 min 0,000 mm 0,0 UV-I 0 W/m -0,3 C -0,2 C 8,0 km/h (2 Bft) 100,00 %
24.12.2016 06:16 -0,2 C 99 % 1032,2 hPa 0,0 l/m 3,9 km/h (1 Bft) S-SW 196 0 min 0,000 mm 0,0 UV-I 0 W/m -0,3 C -0,2 C 8,0 km/h (2 Bft) 100,00 %
24.12.2016 06:18 -0,1 C 99 % 1032,2 hPa 0,0 l/m 3,8 km/h (1 Bft) S-SW 201 0 min 0,000 mm 0,0 UV-I 0 W/m -0,2 C -0,1 C 6,4 km/h (2 Bft) 100,00 %
24.12.2016 06:20 -0,1 C 99 % 1032,1 hPa 0,0 l/m 3,7 km/h (1 Bft) S-SW 208 0 min 0,000 mm 0,0 UV-I 0 W/m -0,2 C -0,1 C 4,8 km/h (1 Bft) 100,00 %
24.12.2016 06:22 -0,1 C 99 % 1032,1 hPa 0,0 l/m 4,4 km/h (1 Bft) S-SO 163 0 min 0,000 mm 0,0 UV-I 0 W/m -0,2 C -0,1 C 8,0 km/h (2 Bft) 100,00 %
24.12.2016 06:24 -0,1 C 99 % 1032,1 hPa 0,0 l/m 2,4 km/h (1 Bft) S-SW 198 0 min 0,000 mm 0,0 UV-I 0 W/m -0,2 C -0,1 C 4,8 km/h (1 Bft) 100,00 %
24.12.2016 06:26 -0,1 C 99 % 1032,0 hPa 0,0 l/m 3,4 km/h (1 Bft) S-SO 165 0 min 0,000 mm 0,0 UV-I 0 W/m -0,2 C -0,1 C 6,4 km/h (2 Bft) 96,23 %
24.12.2016 06:28 -0,1 C 99 % 1032,0 hPa 0,0 l/m 5,0 km/h (1 Bft) S 169 0 min 0,000 mm 0,0 UV-I 0 W/m -0,2 C -0,1 C 9,7 km/h (2 Bft) 100,00 %
24.12.2016 06:30 -0,1 C 99 % 1032,0 hPa 0,0 l/m 3,3 km/h (1 Bft) S-SO 163 0 min 0,000 mm 0,0 UV-I 0 W/m -0,2 C -0,1 C 6,4 km/h (2 Bft) 100,00 %
24.12.2016 06:32 -0,1 C 99 % 1031,9 hPa 0,0 l/m 2,1 km/h (1 Bft) S-SO 168 0 min 0,000 mm 0,0 UV-I 0 W/m -0,2 C -0,1 C 6,4 km/h (2 Bft) 100,00 %
24.12.2016 06:34 -0,1 C 99 % 1032,0 hPa 0,0 l/m 2,2 km/h (1 Bft) S 171 0 min 0,000 mm 0,0 UV-I 0 W/m -0,2 C -0,1 C 4,8 km/h (1 Bft) 100,00 %
24.12.2016 06:36 -0,1 C 99 % 1032,1 hPa 0,0 l/m 3,0 km/h (1 Bft) S-SW 208 0 min 0,000 mm 0,0 UV-I 0 W/m -0,2 C -0,1 C 8,0 km/h (2 Bft) 100,00 %
24.12.2016 06:38 -0,1 C 99 % 1032,0 hPa 0,0 l/m 1,5 km/h (1 Bft) S-SO 159 0 min 0,000 mm 0,0 UV-I 0 W/m -0,2 C -0,1 C 4,8 km/h (1 Bft) 100,00 %
24.12.2016 06:40 0,0 C 99 % 1032,0 hPa 0,0 l/m 2,1 km/h (1 Bft) S-SO 157 0 min 0,000 mm 0,0 UV-I 0 W/m -0,1 C 0,0 C 4,8 km/h (1 Bft) 100,00 %
24.12.2016 06:42 -0,1 C 99 % 1032,0 hPa 0,0 l/m 2,4 km/h (1 Bft) S-SW 195 0 min 0,000 mm 0,0 UV-I 0 W/m -0,2 C -0,1 C 6,4 km/h (2 Bft) 100,00 %
24.12.2016 06:44 0,0 C 99 % 1031,9 hPa 0,0 l/m 2,2 km/h (1 Bft) S-SO 166 0 min 0,000 mm 0,0 UV-I 0 W/m -0,1 C 0,0 C 4,8 km/h (1 Bft) 100,00 %
24.12.2016 06:46 0,0 C 99 % 1031,9 hPa 0,0 l/m 2,5 km/h (1 Bft) S 182 0 min 0,000 mm 0,0 UV-I 0 W/m -0,1 C 0,0 C 4,8 km/h (1 Bft) 98,00 %
24.12.2016 06:48 0,0 C 99 % 1031,8 hPa 0,0 l/m 2,9 km/h (1 Bft) S 180 0 min 0,000 mm 0,0 UV-I 0 W/m -0,1 C 0,0 C 4,8 km/h (1 Bft) 98,00 %
24.12.2016 06:50 0,0 C 99 % 1031,7 hPa 0,0 l/m 2,5 km/h (1 Bft) S 169 0 min 0,000 mm 0,0 UV-I 0 W/m -0,1 C 0,0 C 4,8 km/h (1 Bft) 100,00 %
24.12.2016 06:52 0,0 C 99 % 1031,7 hPa 0,0 l/m 3,6 km/h (1 Bft) W-SW 242 0 min 0,000 mm 0,0 UV-I 0 W/m -0,1 C 0,0 C 6,4 km/h (2 Bft) 98,00 %
24.12.2016 06:54 0,1 C 99 % 1031,8 hPa 0,0 l/m 2,2 km/h (1 Bft) S 185 0 min 0,000 mm 0,0 UV-I 0 W/m -0,0 C 0,1 C 4,8 km/h (1 Bft) 97,56 %
24.12.2016 06:56 0,1 C 99 % 1031,7 hPa 0,0 l/m 5,5 km/h (1 Bft) S-SW 207 0 min 0,000 mm 0,0 UV-I 0 W/m -0,0 C 0,1 C 9,7 km/h (2 Bft) 98,11 %
24.12.2016 06:58 0,1 C 99 % 1031,7 hPa 0,0 l/m 4,8 km/h (1 Bft) S-SW 208 0 min 0,000 mm 0,0 UV-I 0 W/m -0,0 C 0,1 C 8,0 km/h (2 Bft) 97,56 %
24.12.2016 07:00 0,1 C 99 % 1031,8 hPa 0,0 l/m 2,2 km/h (1 Bft) S-SW 213 0 min 0,000 mm 0,0 UV-I 0 W/m -0,0 C 0,1 C 4,8 km/h (1 Bft) 98,11 %
24.12.2016 07:02 0,1 C 99 % 1031,8 hPa 0,0 l/m 3,8 km/h (1 Bft) S-SW 195 0 min 0,000 mm 0,0 UV-I 0 W/m -0,0 C 0,1 C 8,0 km/h (2 Bft) 95,74 %
24.12.2016 07:04 0,1 C 99 % 1031,8 hPa 0,0 l/m 7,8 km/h (2 Bft) SW 232 0 min 0,000 mm 0,0 UV-I 0 W/m -0,0 C -1,3 C 14,5 km/h (3 Bft) 95,74 %
24.12.2016 07:06 0,1 C 99 % 1031,7 hPa 0,0 l/m 4,4 km/h (1 Bft) S-SW 205 0 min 0,000 mm 0,0 UV-I 0 W/m -0,0 C 0,1 C 8,0 km/h (2 Bft) 97,56 %
24.12.2016 07:08 0,1 C 99 % 1031,7 hPa 0,0 l/m 4,7 km/h (1 Bft) SW 216 0 min 0,000 mm 0,0 UV-I 0 W/m -0,0 C 0,1 C 8,0 km/h (2 Bft) 93,62 %
24.12.2016 07:10 0,1 C 99 % 1031,7 hPa 0,0 l/m 5,3 km/h (1 Bft) SW 227 0 min 0,000 mm 0,0 UV-I 0 W/m -0,0 C 0,1 C 8,0 km/h (2 Bft) 98,00 %
24.12.2016 07:12 0,1 C 99 % 1031,7 hPa 0,0 l/m 4,2 km/h (1 Bft) SW 218 0 min 0,000 mm 0,0 UV-I 0 W/m -0,0 C 0,1 C 6,4 km/h (2 Bft) 96,55 %
24.12.2016 07:14 0,1 C 99 % 1031,7 hPa 0,0 l/m 6,5 km/h (2 Bft) SW 231 0 min 0,000 mm 0,0 UV-I 0 W/m -0,0 C 0,0 C 9,7 km/h (2 Bft) 96,43 %
24.12.2016 07:16 0,1 C 99 % 1031,7 hPa 0,0 l/m 4,9 km/h (1 Bft) S-SW 212 0 min 0,000 mm 0,0 UV-I 0 W/m -0,0 C 0,1 C 6,4 km/h (2 Bft) 96,43 %
24.12.2016 07:18 0,1 C 99 % 1031,7 hPa 0,0 l/m 5,3 km/h (1 Bft) S-SW 209 0 min 0,000 mm 0,0 UV-I 0 W/m -0,0 C 0,1 C 6,4 km/h (2 Bft) 96,00 %
24.12.2016 07:20 0,1 C 99 % 1031,7 hPa 0,0 l/m 6,0 km/h (2 Bft) S-SW 209 0 min 0,000 mm 0,0 UV-I 0 W/m -0,0 C 0,1 C 9,7 km/h (2 Bft) 97,87 %
24.12.2016 07:22 0,1 C 99 % 1031,6 hPa 0,0 l/m 6,5 km/h (2 Bft) SW 225 0 min 0,000 mm 0,0 UV-I 0 W/m -0,0 C 0,0 C 9,7 km/h (2 Bft) 95,74 %
24.12.2016 07:24 0,1 C 99 % 1031,6 hPa 0,0 l/m 4,7 km/h (1 Bft) SW 215 0 min 0,000 mm 0,0 UV-I 0 W/m -0,0 C 0,1 C 8,0 km/h (2 Bft) 95,12 %
24.12.2016 07:26 0,1 C 99 % 1031,5 hPa 0,0 l/m 5,1 km/h (1 Bft) S-SW 208 0 min 0,000 mm 0,0 UV-I 0 W/m -0,0 C 0,1 C 9,7 km/h (2 Bft) 98,11 %
24.12.2016 07:28 0,1 C 99 % 1031,5 hPa 0,0 l/m 6,5 km/h (2 Bft) SW 232 0 min 0,000 mm 0,0 UV-I 0 W/m -0,0 C 0,0 C 8,0 km/h (2 Bft) 97,44 %
24.12.2016 07:30 0,2 C 99 % 1031,5 hPa 0,0 l/m 4,3 km/h (1 Bft) W-SW 238 0 min 0,000 mm 0,0 UV-I 0 W/m 0,1 C 0,2 C 6,4 km/h (2 Bft) 98,08 %
24.12.2016 07:32 0,1 C 99 % 1031,4 hPa 0,0 l/m 2,8 km/h (1 Bft) W-SW 238 0 min 0,000 mm 0,0 UV-I 0 W/m -0,0 C 0,1 C 4,8 km/h (1 Bft) 100,00 %
24.12.2016 07:34 0,1 C 99 % 1031,4 hPa 0,0 l/m 4,1 km/h (1 Bft) S-SW 213 0 min 0,000 mm 0,0 UV-I 0 W/m -0,0 C 0,1 C 6,4 km/h (2 Bft) 98,00 %
24.12.2016 07:36 0,1 C 99 % 1031,5 hPa 0,0 l/m 4,9 km/h (1 Bft) W-SW 241 0 min 0,000 mm 0,0 UV-I 1 W/m -0,0 C 0,1 C 8,0 km/h (2 Bft) 100,00 %
24.12.2016 07:38 0,2 C 99 % 1031,5 hPa 0,0 l/m 3,9 km/h (1 Bft) SW 234 0 min 0,000 mm 0,0 UV-I 5 W/m 0,1 C 0,2 C 6,4 km/h (2 Bft) 100,00 %
24.12.2016 07:40 0,2 C 99 % 1031,5 hPa 0,0 l/m 3,3 km/h (1 Bft) W-SW 249 0 min 0,000 mm 0,0 UV-I 5 W/m 0,1 C 0,2 C 4,8 km/h (1 Bft) 100,00 %
24.12.2016 07:42 0,2 C 99 % 1031,4 hPa 0,0 l/m 3,5 km/h (1 Bft) W 263 0 min 0,000 mm 0,0 UV-I 5 W/m 0,1 C 0,2 C 6,4 km/h (2 Bft) 97,56 %
24.12.2016 07:44 0,2 C 99 % 1031,4 hPa 0,0 l/m 4,0 km/h (1 Bft) SW 230 0 min 0,000 mm 0,0 UV-I 5 W/m 0,1 C 0,2 C 8,0 km/h (2 Bft) 100,00 %
24.12.2016 07:46 0,2 C 99 % 1031,4 hPa 0,0 l/m 6,5 km/h (2 Bft) W-SW 254 0 min 0,000 mm 0,0 UV-I 3 W/m 0,1 C 0,1 C 11,3 km/h (2 Bft) 98,00 %
24.12.2016 07:48 0,3 C 99 % 1031,4 hPa 0,0 l/m 6,5 km/h (2 Bft) W-SW 252 0 min 0,000 mm 0,0 UV-I 5 W/m 0,2 C 0,2 C 11,3 km/h (2 Bft) 100,00 %
24.12.2016 07:50 0,3 C 99 % 1031,4 hPa 0,0 l/m 6,4 km/h (2 Bft) W-SW 242 0 min 0,000 mm 0,0 UV-I 5 W/m 0,2 C 0,3 C 9,7 km/h (2 Bft) 100,00 %
24.12.2016 07:52 0,3 C 99 % 1031,4 hPa 0,0 l/m 5,8 km/h (2 Bft) W-SW 240 0 min 0,000 mm 0,0 UV-I 5 W/m 0,2 C 0,3 C 8,0 km/h (2 Bft) 96,15 %
24.12.2016 07:54 0,4 C 99 % 1031,4 hPa 0,0 l/m 7,5 km/h (2 Bft) W 264 0 min 0,000 mm 0,0 UV-I 5 W/m 0,3 C -0,7 C 11,3 km/h (2 Bft) 100,00 %
24.12.2016 07:56 0,4 C 99 % 1031,4 hPa 0,0 l/m 7,6 km/h (2 Bft) SW 223 0 min 0,000 mm 0,0 UV-I 5 W/m 0,3 C -0,8 C 11,3 km/h (2 Bft) 100,00 %
24.12.2016 07:58 0,4 C 99 % 1031,3 hPa 0,0 l/m 9,1 km/h (2 Bft) SW 229 0 min 0,000 mm 0,0 UV-I 6 W/m 0,3 C -2,2 C 14,5 km/h (3 Bft) 98,11 %
24.12.2016 08:00 0,4 C 99 % 1031,4 hPa 0,0 l/m 8,1 km/h (2 Bft) W-SW 254 0 min 0,000 mm 0,0 UV-I 7 W/m 0,3 C -1,3 C 14,5 km/h (3 Bft) 100,00 %
24.12.2016 08:02 0,4 C 99 % 1031,4 hPa 0,0 l/m 7,3 km/h (2 Bft) W-SW 253 0 min 0,000 mm 0,0 UV-I 8 W/m 0,3 C -0,5 C 11,3 km/h (2 Bft) 97,87 %
24.12.2016 08:04 0,4 C 99 % 1031,4 hPa 0,0 l/m 5,4 km/h (1 Bft) W-NW 285 0 min 0,000 mm 0,0 UV-I 9 W/m 0,3 C 0,4 C 9,7 km/h (2 Bft) 100,00 %
24.12.2016 08:06 0,4 C 99 % 1031,3 hPa 0,0 l/m 5,4 km/h (1 Bft) W-SW 258 2 min 0,000 mm 0,0 UV-I 10 W/m 0,3 C 0,4 C 11,3 km/h (2 Bft) 100,00 %
24.12.2016 08:08 0,5 C 99 % 1031,4 hPa 0,0 l/m 4,7 km/h (1 Bft) W 280 0 min 0,000 mm 0,0 UV-I 11 W/m 0,4 C 0,5 C 6,4 km/h (2 Bft) 100,00 %
24.12.2016 08:10 0,4 C 99 % 1031,3 hPa 0,0 l/m 5,1 km/h (1 Bft) W-SW 254 0 min 0,000 mm 0,0 UV-I 11 W/m 0,3 C 0,4 C 9,7 km/h (2 Bft) 100,00 %
24.12.2016 08:12 0,4 C 99 % 1031,4 hPa 0,0 l/m 6,1 km/h (2 Bft) W-SW 247 0 min 0,000 mm 0,0 UV-I 11 W/m 0,3 C 0,4 C 9,7 km/h (2 Bft) 98,00 %
24.12.2016 08:14 0,5 C 99 % 1031,4 hPa 0,0 l/m 7,0 km/h (2 Bft) W-SW 254 0 min 0,000 mm 0,0 UV-I 11 W/m 0,4 C -0,1 C 12,9 km/h (3 Bft) 96,23 %
24.12.2016 08:16 0,5 C 99 % 1031,4 hPa 0,0 l/m 6,5 km/h (2 Bft) W-SW 257 0 min 0,000 mm 0,0 UV-I 12 W/m 0,4 C 0,4 C 11,3 km/h (2 Bft) 100,00 %
24.12.2016 08:18 0,6 C 99 % 1031,4 hPa 0,0 l/m 7,5 km/h (2 Bft) W-SW 243 0 min 0,000 mm 0,0 UV-I 12 W/m 0,5 C -0,5 C 12,9 km/h (3 Bft) 100,00 %
24.12.2016 08:20 0,6 C 99 % 1031,5 hPa 0,0 l/m 6,9 km/h (2 Bft) W 268 0 min 0,000 mm 0,0 UV-I 12 W/m 0,5 C 0,1 C 11,3 km/h (2 Bft) 100,00 %
24.12.2016 08:22 0,6 C 99 % 1031,5 hPa 0,0 l/m 6,5 km/h (2 Bft) W-SW 255 0 min 0,000 mm 0,0 UV-I 12 W/m 0,5 C 0,5 C 12,9 km/h (3 Bft) 100,00 %
24.12.2016 08:24 0,6 C 99 % 1031,4 hPa 0,0 l/m 5,5 km/h (1 Bft) W-NW 294 0 min 0,000 mm 0,0 UV-I 14 W/m 0,5 C 0,6 C 9,7 km/h (2 Bft) 95,65 %
24.12.2016 08:26 0,6 C 99 % 1031,4 hPa 0,0 l/m 7,0 km/h (2 Bft) W 259 0 min 0,000 mm 0,0 UV-I 13 W/m 0,5 C -0,0 C 11,3 km/h (2 Bft) 100,00 %
24.12.2016 08:28 0,6 C 99 % 1031,5 hPa 0,0 l/m 6,6 km/h (2 Bft) SW 235 0 min 0,000 mm 0,0 UV-I 14 W/m 0,5 C 0,4 C 9,7 km/h (2 Bft) 100,00 %
24.12.2016 08:30 0,7 C 99 % 1031,4 hPa 0,0 l/m 5,8 km/h (2 Bft) W-SW 241 0 min 0,000 mm 0,0 UV-I 12 W/m 0,6 C 0,7 C 8,0 km/h (2 Bft) 100,00 %
24.12.2016 08:32 0,7 C 99 % 1031,4 hPa 0,0 l/m 7,2 km/h (2 Bft) SW 224 0 min 0,000 mm 0,0 UV-I 14 W/m 0,6 C -0,1 C 11,3 km/h (2 Bft) 97,37 %
24.12.2016 08:34 0,7 C 99 % 1031,4 hPa 0,0 l/m 7,1 km/h (2 Bft) SW 235 0 min 0,000 mm 0,0 UV-I 15 W/m 0,6 C -0,0 C 9,7 km/h (2 Bft) 100,00 %
24.12.2016 08:36 0,7 C 99 % 1031,5 hPa 0,0 l/m 7,3 km/h (2 Bft) SW 217 0 min 0,000 mm 0,0 UV-I 16 W/m 0,6 C -0,2 C 11,3 km/h (2 Bft) 96,23 %
24.12.2016 08:38 0,7 C 99 % 1031,4 hPa 0,0 l/m 8,4 km/h (2 Bft) W-SW 240 0 min 0,000 mm 0,0 UV-I 17 W/m 0,6 C -1,3 C 14,5 km/h (3 Bft) 100,00 %
24.12.2016 08:40 0,8 C 99 % 1031,4 hPa 0,0 l/m 11,5 km/h (2 Bft) SW 227 0 min 0,000 mm 0,0 UV-I 18 W/m 0,7 C -3,7 C 16,1 km/h (3 Bft) 98,08 %
24.12.2016 08:42 0,8 C 99 % 1031,3 hPa 0,0 l/m 10,8 km/h (2 Bft) W-SW 250 0 min 0,000 mm 0,0 UV-I 25 W/m 0,7 C -3,2 C 16,1 km/h (3 Bft) 100,00 %
24.12.2016 08:44 0,8 C 99 % 1031,3 hPa 0,0 l/m 9,0 km/h (2 Bft) SW 221 0 min 0,000 mm 0,0 UV-I 32 W/m 0,7 C -1,7 C 16,1 km/h (3 Bft) 100,00 %
24.12.2016 08:46 0,8 C 99 % 1031,2 hPa 0,0 l/m 8,9 km/h (2 Bft) SW 229 0 min 0,000 mm 0,0 UV-I 38 W/m 0,7 C -1,6 C 14,5 km/h (3 Bft) 100,00 %
24.12.2016 08:48 0,8 C 99 % 1031,2 hPa 0,0 l/m 10,4 km/h (2 Bft) S-SW 201 0 min 0,000 mm 0,0 UV-I 41 W/m 0,7 C -2,9 C 14,5 km/h (3 Bft) 98,11 %
24.12.2016 08:50 0,8 C 99 % 1031,1 hPa 0,0 l/m 11,1 km/h (2 Bft) W-SW 240 0 min 0,000 mm 0,0 UV-I 45 W/m 0,7 C -3,4 C 19,3 km/h (3 Bft) 100,00 %
24.12.2016 08:52 0,9 C 99 % 1031,1 hPa 0,0 l/m 12,6 km/h (3 Bft) SW 221 0 min 0,000 mm 0,0 UV-I 46 W/m 0,8 C -4,4 C 19,3 km/h (3 Bft) 100,00 %
24.12.2016 08:54 0,9 C 99 % 1031,1 hPa 0,0 l/m 10,4 km/h (2 Bft) W-SW 244 0 min 0,000 mm 0,0 UV-I 47 W/m 0,8 C -2,8 C 16,1 km/h (3 Bft) 100,00 %
24.12.2016 08:56 1,0 C 99 % 1031,1 hPa 0,0 l/m 12,0 km/h (2 Bft) S-SW 201 0 min 0,000 mm 0,0 UV-I 49 W/m 0,9 C -3,8 C 19,3 km/h (3 Bft) 100,00 %
24.12.2016 08:58 1,1 C 99 % 1031,1 hPa 0,0 l/m 13,8 km/h (3 Bft) SW 223 0 min 0,000 mm 0,0 UV-I 50 W/m 1,0 C -4,9 C 17,7 km/h (3 Bft) 100,00 %
24.12.2016 09:00 1,1 C 99 % 1031,0 hPa 0,0 l/m 13,1 km/h (3 Bft) SW 231 0 min 0,000 mm 0,0 UV-I 53 W/m 1,0 C -4,5 C 22,5 km/h (4 Bft) 100,00 %
24.12.2016 09:02 1,1 C 99 % 1031,0 hPa 0,0 l/m 12,1 km/h (2 Bft) W-SW 239 0 min 0,000 mm 0,0 UV-I 55 W/m 1,0 C -3,8 C 17,7 km/h (3 Bft) 97,73 %
24.12.2016 09:04 1,2 C 99 % 1030,9 hPa 0,0 l/m 16,0 km/h (3 Bft) SW 219 0 min 0,000 mm 0,0 UV-I 57 W/m 1,1 C -6,1 C 22,5 km/h (4 Bft) 96,00 %
24.12.2016 09:06 1,2 C 99 % 1030,9 hPa 0,0 l/m 12,7 km/h (3 Bft) SW 225 0 min 0,000 mm 0,0 UV-I 59 W/m 1,1 C -4,1 C 20,9 km/h (4 Bft) 98,00 %
24.12.2016 09:08 1,3 C 99 % 1030,9 hPa 0,0 l/m 10,2 km/h (2 Bft) S-SW 202 0 min 0,000 mm 0,0 UV-I 62 W/m 1,2 C -2,2 C 16,1 km/h (3 Bft) 97,37 %
24.12.2016 09:10 1,3 C 99 % 1030,9 hPa 0,0 l/m 12,3 km/h (3 Bft) SW 225 0 min 0,000 mm 0,0 UV-I 63 W/m 1,2 C -3,7 C 17,7 km/h (3 Bft) 97,87 %
24.12.2016 09:12 1,3 C 99 % 1030,9 hPa 0,0 l/m 11,1 km/h (2 Bft) SW 235 0 min 0,000 mm 0,0 UV-I 65 W/m 1,2 C -2,9 C 19,3 km/h (3 Bft) 96,23 %
24.12.2016 09:14 1,3 C 99 % 1031,0 hPa 0,0 l/m 12,8 km/h (3 Bft) SW 232 0 min 0,000 mm 0,0 UV-I 67 W/m 1,2 C -4,0 C 20,9 km/h (4 Bft) 97,62 %
24.12.2016 09:16 1,4 C 99 % 1031,1 hPa 0,0 l/m 13,7 km/h (3 Bft) W-SW 250 0 min 0,000 mm 0,0 UV-I 69 W/m 1,3 C -4,5 C 19,3 km/h (3 Bft) 96,23 %
24.12.2016 09:18 1,4 C 99 % 1031,0 hPa 0,0 l/m 13,4 km/h (3 Bft) SW 224 0 min 0,000 mm 0,0 UV-I 70 W/m 1,3 C -4,3 C 19,3 km/h (3 Bft) 97,56 %
24.12.2016 09:20 1,4 C 99 % 1031,1 hPa 0,0 l/m 11,4 km/h (2 Bft) SW 216 0 min 0,000 mm 0,0 UV-I 72 W/m 1,3 C -3,0 C 16,1 km/h (3 Bft) 96,23 %
24.12.2016 09:22 1,4 C 99 % 1031,1 hPa 0,0 l/m 13,3 km/h (3 Bft) SW 233 0 min 0,000 mm 0,0 UV-I 74 W/m 1,3 C -4,3 C 19,3 km/h (3 Bft) 97,37 %
24.12.2016 09:24 1,4 C 99 % 1031,1 hPa 0,0 l/m 9,9 km/h (2 Bft) W 261 0 min 0,000 mm 0,0 UV-I 77 W/m 1,3 C -1,8 C 14,5 km/h (3 Bft) 96,23 %
24.12.2016 09:26 1,5 C 99 % 1031,1 hPa 0,0 l/m 10,3 km/h (2 Bft) W-SW 248 0 min 0,000 mm 0,0 UV-I 80 W/m 1,4 C -2,0 C 14,5 km/h (3 Bft) 97,73 %
24.12.2016 09:28 1,5 C 99 % 1031,1 hPa 0,0 l/m 9,0 km/h (2 Bft) SW 235 0 min 0,000 mm 0,0 UV-I 83 W/m 1,4 C -1,0 C 14,5 km/h (3 Bft) 98,11 %
24.12.2016 09:30 1,5 C 99 % 1031,1 hPa 0,0 l/m 9,7 km/h (2 Bft) W-SW 257 0 min 0,000 mm 0,0 UV-I 85 W/m 1,4 C -1,6 C 14,5 km/h (3 Bft) 97,37 %
24.12.2016 09:32 1,5 C 99 % 1031,1 hPa 0,0 l/m 10,2 km/h (2 Bft) W-SW 242 0 min 0,000 mm 0,0 UV-I 88 W/m 1,4 C -2,0 C 16,1 km/h (3 Bft) 98,21 %
24.12.2016 09:34 1,6 C 99 % 1031,1 hPa 0,0 l/m 11,1 km/h (2 Bft) SW 219 0 min 0,000 mm 0,0 UV-I 91 W/m 1,5 C -2,5 C 17,7 km/h (3 Bft) 95,12 %
24.12.2016 09:36 1,6 C 99 % 1031,0 hPa 0,0 l/m 11,7 km/h (2 Bft) SW 225 0 min 0,000 mm 0,0 UV-I 95 W/m 1,5 C -3,0 C 17,7 km/h (3 Bft) 98,00 %
24.12.2016 09:38 1,7 C 99 % 1031,1 hPa 0,0 l/m 12,4 km/h (3 Bft) W-SW 239 0 min 0,000 mm 0,0 UV-I 99 W/m 1,6 C -3,3 C 17,7 km/h (3 Bft) 100,00 %
24.12.2016 09:40 1,7 C 99 % 1031,1 hPa 0,0 l/m 14,0 km/h (3 Bft) SW 236 0 min 0,000 mm 0,0 UV-I 104 W/m 1,6 C -4,3 C 19,3 km/h (3 Bft) 98,11 %
24.12.2016 09:42 1,7 C 98 % 1031,1 hPa 0,0 l/m 11,5 km/h (2 Bft) S-SW 207 0 min 0,000 mm 0,0 UV-I 105 W/m 1,4 C -2,7 C 17,7 km/h (3 Bft) 100,00 %
24.12.2016 09:44 1,8 C 98 % 1031,1 hPa 0,0 l/m 12,3 km/h (3 Bft) W-SW 243 0 min 0,000 mm 0,0 UV-I 104 W/m 1,5 C -3,1 C 19,3 km/h (3 Bft) 97,56 %
24.12.2016 09:46 1,8 C 99 % 1031,2 hPa 0,0 l/m 14,1 km/h (3 Bft) SW 221 0 min 0,000 mm 0,0 UV-I 81 W/m 1,7 C -4,3 C 19,3 km/h (3 Bft) 100,00 %
24.12.2016 09:48 1,9 C 99 % 1031,1 hPa 0,2 l/m 11,5 km/h (2 Bft) W-SW 240 0 min 0,000 mm 0,0 UV-I 79 W/m 1,8 C -2,5 C 14,5 km/h (3 Bft) 98,21 %
24.12.2016 09:50 1,9 C 99 % 1031,1 hPa 0,0 l/m 10,8 km/h (2 Bft) SW 234 0 min 0,000 mm 0,0 UV-I 86 W/m 1,8 C -2,0 C 16,1 km/h (3 Bft) 100,00 %
24.12.2016 09:52 2,0 C 99 % 1031,2 hPa 0,0 l/m 8,6 km/h (2 Bft) SW 224 0 min 0,000 mm 0,0 UV-I 89 W/m 1,9 C -0,1 C 16,1 km/h (3 Bft) 100,00 %
24.12.2016 09:54 2,0 C 98 % 1031,2 hPa 0,0 l/m 11,8 km/h (2 Bft) S-SW 211 0 min 0,000 mm 0,0 UV-I 85 W/m 1,7 C -2,6 C 17,7 km/h (3 Bft) 94,55 %
24.12.2016 09:56 2,1 C 99 % 1031,2 hPa 0,0 l/m 12,3 km/h (3 Bft) W-SW 242 0 min 0,000 mm 0,0 UV-I 83 W/m 2,0 C -2,8 C 16,1 km/h (3 Bft) 100,00 %
24.12.2016 09:58 2,2 C 98 % 1031,1 hPa 0,0 l/m 12,5 km/h (3 Bft) S-SW 202 0 min 0,000 mm 0,0 UV-I 89 W/m 1,9 C -2,8 C 19,3 km/h (3 Bft) 100,00 %
24.12.2016 10:00 2,2 C 98 % 1031,2 hPa 0,0 l/m 10,7 km/h (2 Bft) W-SW 240 0 min 0,025 mm 0,0 UV-I 93 W/m 1,9 C -1,6 C 17,7 km/h (3 Bft) 97,73 %
24.12.2016 10:02 2,3 C 98 % 1031,2 hPa 0,0 l/m 11,6 km/h (2 Bft) S-SW 211 0 min 0,000 mm 0,0 UV-I 85 W/m 2,0 C -2,1 C 24,1 km/h (4 Bft) 97,56 %
24.12.2016 10:04 2,3 C 98 % 1031,2 hPa 0,0 l/m 9,3 km/h (2 Bft) SW 222 0 min 0,000 mm 0,0 UV-I 75 W/m 2,0 C -0,4 C 12,9 km/h (3 Bft) 100,00 %
24.12.2016 10:06 2,3 C 98 % 1031,2 hPa 0,0 l/m 10,4 km/h (2 Bft) SW 236 0 min 0,000 mm 0,0 UV-I 73 W/m 2,0 C -1,2 C 16,1 km/h (3 Bft) 98,11 %
24.12.2016 10:08 2,3 C 98 % 1031,2 hPa 0,0 l/m 9,6 km/h (2 Bft) SW 226 0 min 0,000 mm 0,0 UV-I 69 W/m 2,0 C -0,6 C 14,5 km/h (3 Bft) 100,00 %
24.12.2016 10:10 2,4 C 98 % 1031,2 hPa 0,0 l/m 12,5 km/h (3 Bft) S-SW 205 0 min 0,000 mm 0,0 UV-I 68 W/m 2,1 C -2,6 C 17,7 km/h (3 Bft) 100,00 %
24.12.2016 10:12 2,4 C 98 % 1031,2 hPa 0,0 l/m 13,0 km/h (3 Bft) SW 234 0 min 0,000 mm 0,0 UV-I 67 W/m 2,1 C -2,9 C 16,1 km/h (3 Bft) 100,00 %
24.12.2016 10:14 2,4 C 98 % 1031,2 hPa 0,0 l/m 11,8 km/h (2 Bft) W-SW 253 0 min 0,000 mm 0,0 UV-I 74 W/m 2,1 C -2,1 C 17,7 km/h (3 Bft) 100,00 %
24.12.2016 10:16 2,5 C 98 % 1031,2 hPa 0,0 l/m 10,5 km/h (2 Bft) SW 223 0 min 0,000 mm 0,0 UV-I 71 W/m 2,2 C -1,1 C 16,1 km/h (3 Bft) 100,00 %
24.12.2016 10:18 2,6 C 98 % 1031,2 hPa 0,2 l/m 12,4 km/h (3 Bft) W-SW 248 0 min 0,000 mm 0,0 UV-I 74 W/m 2,3 C -2,3 C 22,5 km/h (4 Bft) 100,00 %
24.12.2016 10:20 2,6 C 98 % 1031,2 hPa 0,0 l/m 12,2 km/h (2 Bft) SW 222 0 min 0,000 mm 0,0 UV-I 79 W/m 2,3 C -2,1 C 17,7 km/h (3 Bft) 100,00 %
24.12.2016 10:22 2,6 C 98 % 1031,1 hPa 0,0 l/m 11,2 km/h (2 Bft) SW 228 0 min 0,000 mm 0,0 UV-I 85 W/m 2,3 C -1,5 C 16,1 km/h (3 Bft) 100,00 %
24.12.2016 10:24 2,7 C 97 % 1031,1 hPa 0,0 l/m 11,0 km/h (2 Bft) SW 217 0 min 0,000 mm 0,0 UV-I 79 W/m 2,3 C -1,2 C 20,9 km/h (4 Bft) 100,00 %
24.12.2016 10:26 2,7 C 97 % 1031,1 hPa 0,0 l/m 11,6 km/h (2 Bft) W-SW 246 0 min 0,000 mm 0,0 UV-I 81 W/m 2,3 C -1,6 C 19,3 km/h (3 Bft) 100,00 %
24.12.2016 10:28 2,8 C 97 % 1031,1 hPa 0,0 l/m 10,9 km/h (2 Bft) S 190 0 min 0,000 mm 0,0 UV-I 89 W/m 2,4 C -1,0 C 17,7 km/h (3 Bft) 100,00 %
24.12.2016 10:30 2,8 C 97 % 1031,0 hPa 0,0 l/m 11,4 km/h (2 Bft) W-SW 237 0 min 0,000 mm 0,0 UV-I 88 W/m 2,4 C -1,4 C 16,1 km/h (3 Bft) 97,56 %
24.12.2016 10:32 2,8 C 97 % 1031,0 hPa 0,0 l/m 12,8 km/h (3 Bft) S 174 0 min 0,000 mm 0,0 UV-I 84 W/m 2,4 C -2,3 C 19,3 km/h (3 Bft) 100,00 %
24.12.2016 10:34 2,9 C 97 % 1031,1 hPa 0,0 l/m 11,4 km/h (2 Bft) W-SW 252 0 min 0,000 mm 0,0 UV-I 90 W/m 2,5 C -1,3 C 16,1 km/h (3 Bft) 100,00 %
24.12.2016 10:36 3,0 C 97 % 1031,1 hPa 0,0 l/m 14,1 km/h (3 Bft) S-SW 213 0 min 0,000 mm 0,0 UV-I 91 W/m 2,6 C -2,8 C 19,3 km/h (3 Bft) 100,00 %
24.12.2016 10:38 3,0 C 96 % 1031,0 hPa 0,0 l/m 12,2 km/h (2 Bft) SW 224 0 min 0,000 mm 0,0 UV-I 95 W/m 2,4 C -1,7 C 17,7 km/h (3 Bft) 100,00 %
24.12.2016 10:40 3,1 C 96 % 1031,2 hPa 0,0 l/m 11,0 km/h (2 Bft) SW 234 0 min 0,000 mm 0,0 UV-I 104 W/m 2,5 C -0,8 C 16,1 km/h (3 Bft) 100,00 %
24.12.2016 10:42 3,1 C 96 % 1031,0 hPa 0,2 l/m 14,7 km/h (3 Bft) S-SW 193 0 min 0,000 mm 0,0 UV-I 110 W/m 2,5 C -3,1 C 24,1 km/h (4 Bft) 100,00 %
24.12.2016 10:44 3,2 C 96 % 1031,1 hPa 0,0 l/m 11,0 km/h (2 Bft) S-SW 202 0 min 0,000 mm 0,0 UV-I 120 W/m 2,6 C -0,6 C 19,3 km/h (3 Bft) 100,00 %
24.12.2016 10:46 3,2 C 96 % 1031,0 hPa 0,0 l/m 10,9 km/h (2 Bft) SW 224 0 min 0,000 mm 0,0 UV-I 136 W/m 2,6 C -0,6 C 17,7 km/h (3 Bft) 100,00 %
24.12.2016 10:48 3,3 C 96 % 1031,0 hPa 0,0 l/m 11,9 km/h (2 Bft) SW 217 0 min 0,000 mm 0,0 UV-I 144 W/m 2,7 C -1,1 C 19,3 km/h (3 Bft) 100,00 %
24.12.2016 10:50 3,3 C 95 % 1031,0 hPa 0,0 l/m 11,9 km/h (2 Bft) W-SW 257 0 min 0,000 mm 0,0 UV-I 137 W/m 2,6 C -1,1 C 17,7 km/h (3 Bft) 100,00 %
24.12.2016 10:52 3,3 C 95 % 1031,0 hPa 0,0 l/m 13,0 km/h (3 Bft) SW 219 0 min 0,000 mm 0,0 UV-I 132 W/m 2,6 C -1,8 C 24,1 km/h (4 Bft) 100,00 %
24.12.2016 10:54 3,4 C 95 % 1030,9 hPa 0,0 l/m 13,4 km/h (3 Bft) S-SW 196 0 min 0,000 mm 0,0 UV-I 132 W/m 2,7 C -2,0 C 24,1 km/h (4 Bft) 100,00 %
24.12.2016 10:56 3,4 C 95 % 1031,0 hPa 0,0 l/m 17,8 km/h (3 Bft) SW 234 0 min 0,000 mm 0,0 UV-I 132 W/m 2,7 C -4,3 C 25,7 km/h (4 Bft) 100,00 %
24.12.2016 10:58 3,5 C 95 % 1030,9 hPa 0,2 l/m 13,1 km/h (3 Bft) W-SW 254 0 min 0,000 mm 0,0 UV-I 135 W/m 2,8 C -1,7 C 17,7 km/h (3 Bft) 100,00 %
24.12.2016 11:00 3,6 C 94 % 1030,9 hPa 0,0 l/m 12,8 km/h (3 Bft) S-SW 193 0 min 0,000 mm 0,0 UV-I 142 W/m 2,7 C -1,4 C 20,9 km/h (4 Bft) 100,00 %
24.12.2016 11:02 3,7 C 94 % 1030,9 hPa 0,0 l/m 14,9 km/h (3 Bft) S-SW 199 0 min 0,051 mm 0,0 UV-I 147 W/m 2,8 C -2,4 C 22,5 km/h (4 Bft) 100,00 %
24.12.2016 11:04 3,7 C 94 % 1030,9 hPa 0,0 l/m 14,8 km/h (3 Bft) SW 218 0 min 0,000 mm 0,0 UV-I 146 W/m 2,8 C -2,4 C 24,1 km/h (4 Bft) 100,00 %
24.12.2016 11:06 3,8 C 93 % 1030,9 hPa 0,0 l/m 13,8 km/h (3 Bft) W-SW 244 0 min 0,000 mm 0,0 UV-I 141 W/m 2,8 C -1,7 C 24,1 km/h (4 Bft) 97,87 %
24.12.2016 11:08 3,8 C 93 % 1030,9 hPa 0,0 l/m 13,1 km/h (3 Bft) S-SW 211 0 min 0,000 mm 0,0 UV-I 135 W/m 2,8 C -1,3 C 20,9 km/h (4 Bft) 100,00 %
24.12.2016 11:10 3,8 C 93 % 1030,8 hPa 0,0 l/m 14,9 km/h (3 Bft) S 181 0 min 0,000 mm 0,0 UV-I 131 W/m 2,8 C -2,3 C 22,5 km/h (4 Bft) 100,00 %
24.12.2016 11:12 3,8 C 93 % 1030,8 hPa 0,0 l/m 12,0 km/h (2 Bft) S 185 0 min 0,000 mm 0,0 UV-I 125 W/m 2,8 C -0,6 C 20,9 km/h (4 Bft) 96,43 %
24.12.2016 11:14 3,9 C 93 % 1030,8 hPa 0,0 l/m 14,0 km/h (3 Bft) W 261 0 min 0,000 mm 0,0 UV-I 125 W/m 2,9 C -1,7 C 20,9 km/h (4 Bft) 95,45 %
24.12.2016 11:16 3,9 C 93 % 1030,7 hPa 0,0 l/m 15,0 km/h (3 Bft) S-SW 194 0 min 0,000 mm 0,0 UV-I 121 W/m 2,9 C -2,3 C 20,9 km/h (4 Bft) 95,45 %
24.12.2016 11:18 3,9 C 93 % 1030,7 hPa 0,0 l/m 16,6 km/h (3 Bft) SW 215 0 min 0,000 mm 0,0 UV-I 126 W/m 2,9 C -3,1 C 25,7 km/h (4 Bft) 98,11 %
24.12.2016 11:20 3,9 C 93 % 1030,7 hPa 0,2 l/m 15,1 km/h (3 Bft) S-SW 205 0 min 0,000 mm 0,0 UV-I 127 W/m 2,9 C -2,3 C 24,1 km/h (4 Bft) 95,12 %
24.12.2016 11:22 3,9 C 93 % 1030,6 hPa 0,0 l/m 14,4 km/h (3 Bft) S-SW 209 0 min 0,000 mm 0,0 UV-I 128 W/m 2,9 C -1,9 C 20,9 km/h (4 Bft) 97,87 %
24.12.2016 11:24 3,9 C 92 % 1030,7 hPa 0,0 l/m 14,2 km/h (3 Bft) S-SW 213 0 min 0,000 mm 0,0 UV-I 128 W/m 2,7 C -1,8 C 22,5 km/h (4 Bft) 96,23 %
24.12.2016 11:26 3,9 C 92 % 1030,6 hPa 0,0 l/m 11,6 km/h (2 Bft) SW 232 0 min 0,000 mm 0,0 UV-I 128 W/m 2,7 C -0,3 C 16,1 km/h (3 Bft) 97,56 %
24.12.2016 11:28 3,9 C 92 % 1030,6 hPa 0,0 l/m 13,7 km/h (3 Bft) S-SW 209 0 min 0,000 mm 0,0 UV-I 127 W/m 2,7 C -1,5 C 22,5 km/h (4 Bft) 97,56 %
24.12.2016 11:30 4,0 C 92 % 1030,6 hPa 0,0 l/m 13,3 km/h (3 Bft) SW 226 0 min 0,000 mm 0,0 UV-I 127 W/m 2,8 C -1,2 C 24,1 km/h (4 Bft) 98,11 %
24.12.2016 11:32 4,0 C 92 % 1030,6 hPa 0,0 l/m 13,2 km/h (3 Bft) SW 236 0 min 0,000 mm 0,0 UV-I 125 W/m 2,8 C -1,1 C 17,7 km/h (3 Bft) 97,87 %
24.12.2016 11:34 4,0 C 92 % 1030,5 hPa 0,0 l/m 13,0 km/h (3 Bft) W 263 0 min 0,000 mm 0,0 UV-I 126 W/m 2,8 C -1,0 C 19,3 km/h (3 Bft) 97,73 %
24.12.2016 11:36 4,1 C 92 % 1030,5 hPa 0,0 l/m 10,7 km/h (2 Bft) W-SW 247 0 min 0,000 mm 0,0 UV-I 128 W/m 2,9 C 0,6 C 19,3 km/h (3 Bft) 98,11 %
24.12.2016 11:38 4,1 C 92 % 1030,4 hPa 0,0 l/m 11,9 km/h (2 Bft) W-SW 243 0 min 0,000 mm 0,0 UV-I 132 W/m 2,9 C -0,2 C 19,3 km/h (3 Bft) 97,37 %
24.12.2016 11:40 4,0 C 92 % 1030,4 hPa 0,0 l/m 10,9 km/h (2 Bft) S-SW 202 0 min 0,000 mm 0,0 UV-I 137 W/m 2,8 C 0,3 C 17,7 km/h (3 Bft) 96,23 %
24.12.2016 11:42 4,0 C 92 % 1030,3 hPa 0,0 l/m 10,2 km/h (2 Bft) SW 219 0 min 0,000 mm 0,0 UV-I 143 W/m 2,8 C 0,8 C 17,7 km/h (3 Bft) 95,74 %
24.12.2016 11:44 4,0 C 92 % 1030,3 hPa 0,2 l/m 8,9 km/h (2 Bft) SW 225 0 min 0,000 mm 0,0 UV-I 145 W/m 2,8 C 1,8 C 11,3 km/h (2 Bft) 97,44 %
24.12.2016 11:46 4,1 C 92 % 1030,3 hPa 0,0 l/m 12,8 km/h (3 Bft) S-SW 199 0 min 0,000 mm 0,0 UV-I 146 W/m 2,9 C -0,8 C 17,7 km/h (3 Bft) 100,00 %
24.12.2016 11:48 4,2 C 92 % 1030,3 hPa 0,0 l/m 14,4 km/h (3 Bft) W-SW 238 0 min 0,000 mm 0,0 UV-I 142 W/m 3,0 C -1,6 C 20,9 km/h (4 Bft) 100,00 %
24.12.2016 11:50 4,2 C 92 % 1030,3 hPa 0,0 l/m 12,7 km/h (3 Bft) SW 236 0 min 0,000 mm 0,0 UV-I 145 W/m 3,0 C -0,6 C 17,7 km/h (3 Bft) 97,62 %
24.12.2016 11:52 4,3 C 92 % 1030,3 hPa 0,0 l/m 9,5 km/h (2 Bft) W 259 0 min 0,000 mm 0,0 UV-I 152 W/m 3,1 C 1,7 C 17,7 km/h (3 Bft) 100,00 %
24.12.2016 11:54 4,3 C 91 % 1030,3 hPa 0,0 l/m 11,0 km/h (2 Bft) SW 235 0 min 0,000 mm 0,0 UV-I 160 W/m 3,0 C 0,6 C 16,1 km/h (3 Bft) 97,56 %
24.12.2016 11:56 4,3 C 92 % 1030,2 hPa 0,0 l/m 9,8 km/h (2 Bft) SW 218 0 min 0,000 mm 0,0 UV-I 170 W/m 3,1 C 1,4 C 16,1 km/h (3 Bft) 100,00 %
24.12.2016 11:58 4,3 C 91 % 1030,2 hPa 0,0 l/m 10,1 km/h (2 Bft) W-SW 254 2 min 0,000 mm 0,0 UV-I 185 W/m 3,0 C 1,2 C 14,5 km/h (3 Bft) 100,00 %
24.12.2016 12:00 4,3 C 92 % 1030,1 hPa 0,0 l/m 11,3 km/h (2 Bft) SW 215 2 min 0,000 mm 0,0 UV-I 215 W/m 3,1 C 0,4 C 17,7 km/h (3 Bft) 100,00 %
24.12.2016 12:02 4,4 C 92 % 1030,1 hPa 0,0 l/m 11,4 km/h (2 Bft) W-SW 242 2 min 0,051 mm 0,0 UV-I 246 W/m 3,2 C 0,4 C 19,3 km/h (3 Bft) 100,00 %
24.12.2016 12:04 4,6 C 92 % 1030,0 hPa 0,0 l/m 6,4 km/h (2 Bft) S 187 2 min 0,000 mm 0,0 UV-I 221 W/m 3,4 C 4,6 C 9,7 km/h (2 Bft) 100,00 %
24.12.2016 12:06 4,6 C 91 % 1029,9 hPa 0,0 l/m 9,0 km/h (2 Bft) SW 236 2 min 0,000 mm 0,0 UV-I 182 W/m 3,3 C 2,4 C 14,5 km/h (3 Bft) 100,00 %
24.12.2016 12:08 4,6 C 91 % 1029,9 hPa 0,0 l/m 7,5 km/h (2 Bft) W 259 0 min 0,000 mm 0,0 UV-I 177 W/m 3,3 C 3,6 C 12,9 km/h (3 Bft) 100,00 %
24.12.2016 12:10 4,6 C 91 % 1029,8 hPa 0,0 l/m 8,6 km/h (2 Bft) SW 217 0 min 0,000 mm 0,0 UV-I 159 W/m 3,3 C 2,7 C 12,9 km/h (3 Bft) 100,00 %
24.12.2016 12:12 4,7 C 91 % 1029,8 hPa 0,0 l/m 8,6 km/h (2 Bft) W-SW 248 0 min 0,000 mm 0,0 UV-I 145 W/m 3,4 C 2,8 C 14,5 km/h (3 Bft) 100,00 %
24.12.2016 12:14 4,7 C 91 % 1029,7 hPa 0,0 l/m 8,8 km/h (2 Bft) W-SW 246 0 min 0,000 mm 0,0 UV-I 135 W/m 3,4 C 2,6 C 14,5 km/h (3 Bft) 100,00 %
24.12.2016 12:16 4,7 C 91 % 1029,7 hPa 0,0 l/m 10,8 km/h (2 Bft) S-SW 206 0 min 0,000 mm 0,0 UV-I 128 W/m 3,4 C 1,2 C 16,1 km/h (3 Bft) 100,00 %
24.12.2016 12:18 4,7 C 91 % 1029,7 hPa 0,0 l/m 12,8 km/h (3 Bft) SW 235 0 min 0,000 mm 0,0 UV-I 135 W/m 3,4 C -0,1 C 20,9 km/h (4 Bft) 100,00 %
24.12.2016 12:20 4,7 C 90 % 1029,6 hPa 0,2 l/m 13,0 km/h (3 Bft) SW 215 0 min 0,000 mm 0,0 UV-I 142 W/m 3,2 C -0,2 C 19,3 km/h (3 Bft) 100,00 %
24.12.2016 12:22 4,7 C 90 % 1029,6 hPa 0,0 l/m 11,3 km/h (2 Bft) SW 217 0 min 0,000 mm 0,0 UV-I 157 W/m 3,2 C 0,9 C 17,7 km/h (3 Bft) 100,00 %
24.12.2016 12:24 4,7 C 90 % 1029,5 hPa 0,0 l/m 12,1 km/h (2 Bft) S 173 0 min 0,000 mm 0,0 UV-I 160 W/m 3,2 C 0,3 C 17,7 km/h (3 Bft) 100,00 %
24.12.2016 12:26 4,7 C 90 % 1029,5 hPa 0,0 l/m 13,1 km/h (3 Bft) W-SW 242 0 min 0,000 mm 0,0 UV-I 154 W/m 3,2 C -0,2 C 19,3 km/h (3 Bft) 100,00 %
24.12.2016 12:28 4,8 C 90 % 1029,5 hPa 0,0 l/m 10,0 km/h (2 Bft) SW 230 0 min 0,000 mm 0,0 UV-I 154 W/m 3,3 C 1,9 C 17,7 km/h (3 Bft) 100,00 %
24.12.2016 12:30 4,8 C 90 % 1029,5 hPa 0,0 l/m 12,2 km/h (2 Bft) SW 220 2 min 0,000 mm 0,1 UV-I 177 W/m 3,3 C 0,4 C 17,7 km/h (3 Bft) 100,00 %
24.12.2016 12:32 4,9 C 90 % 1029,5 hPa 0,0 l/m 10,5 km/h (2 Bft) SW 234 2 min 0,000 mm 0,5 UV-I 194 W/m 3,4 C 1,6 C 14,5 km/h (3 Bft) 97,44 %
24.12.2016 12:34 4,9 C 90 % 1029,4 hPa 0,0 l/m 8,3 km/h (2 Bft) SW 230 2 min 0,000 mm 0,5 UV-I 264 W/m 3,4 C 3,3 C 12,9 km/h (3 Bft) 100,00 %
24.12.2016 12:36 5,1 C 90 % 1029,4 hPa 0,0 l/m 11,9 km/h (2 Bft) W-SW 246 2 min 0,000 mm 0,5 UV-I 288 W/m 3,6 C 0,9 C 17,7 km/h (3 Bft) 100,00 %
24.12.2016 12:38 5,2 C 89 % 1029,4 hPa 0,0 l/m 11,6 km/h (2 Bft) W-SW 238 2 min 0,000 mm 0,4 UV-I 275 W/m 3,5 C 1,2 C 19,3 km/h (3 Bft) 100,00 %
24.12.2016 12:40 5,3 C 89 % 1029,4 hPa 0,0 l/m 9,8 km/h (2 Bft) SW 231 2 min 0,000 mm 0,0 UV-I 276 W/m 3,6 C 2,5 C 17,7 km/h (3 Bft) 100,00 %
24.12.2016 12:42 5,4 C 89 % 1029,4 hPa 0,0 l/m 9,9 km/h (2 Bft) SW 218 2 min 0,000 mm 0,0 UV-I 272 W/m 3,7 C 2,6 C 16,1 km/h (3 Bft) 100,00 %
24.12.2016 12:44 5,4 C 89 % 1029,3 hPa 0,0 l/m 10,3 km/h (2 Bft) W-SW 254 2 min 0,000 mm 0,0 UV-I 211 W/m 3,7 C 2,3 C 16,1 km/h (3 Bft) 100,00 %
24.12.2016 12:46 5,6 C 88 % 1029,3 hPa 0,0 l/m 8,0 km/h (2 Bft) W 275 2 min 0,000 mm 0,0 UV-I 223 W/m 3,8 C 4,2 C 14,5 km/h (3 Bft) 98,31 %
24.12.2016 12:48 5,6 C 88 % 1029,2 hPa 0,0 l/m 9,7 km/h (2 Bft) SW 224 2 min 0,000 mm 0,0 UV-I 220 W/m 3,8 C 2,9 C 14,5 km/h (3 Bft) 97,56 %
24.12.2016 12:50 5,7 C 88 % 1029,2 hPa 0,0 l/m 11,5 km/h (2 Bft) W-SW 244 2 min 0,000 mm 0,3 UV-I 295 W/m 3,9 C 1,9 C 16,1 km/h (3 Bft) 100,00 %
24.12.2016 12:52 5,7 C 88 % 1029,2 hPa 0,0 l/m 8,0 km/h (2 Bft) W 273 2 min 0,000 mm 0,3 UV-I 296 W/m 3,9 C 4,3 C 12,9 km/h (3 Bft) 100,00 %
24.12.2016 12:54 5,8 C 88 % 1029,1 hPa 0,0 l/m 10,3 km/h (2 Bft) W 266 2 min 0,000 mm 0,0 UV-I 197 W/m 4,0 C 2,8 C 14,5 km/h (3 Bft) 100,00 %
24.12.2016 12:56 5,8 C 87 % 1029,1 hPa 0,0 l/m 11,3 km/h (2 Bft) W 280 2 min 0,000 mm 0,0 UV-I 177 W/m 3,8 C 2,1 C 14,5 km/h (3 Bft) 100,00 %
24.12.2016 12:58 5,8 C 87 % 1029,0 hPa 0,0 l/m 11,4 km/h (2 Bft) W-SW 255 2 min 0,000 mm 0,0 UV-I 174 W/m 3,8 C 2,0 C 17,7 km/h (3 Bft) 96,00 %
24.12.2016 13:00 5,7 C 87 % 1029,0 hPa 0,0 l/m 11,5 km/h (2 Bft) W 264 0 min 0,000 mm 0,0 UV-I 165 W/m 3,7 C 1,9 C 14,5 km/h (3 Bft) 100,00 %
24.12.2016 13:02 5,7 C 87 % 1028,9 hPa 0,0 l/m 12,0 km/h (2 Bft) W-SW 257 0 min 0,076 mm 0,0 UV-I 148 W/m 3,7 C 1,6 C 16,1 km/h (3 Bft) 100,00 %
24.12.2016 13:04 5,6 C 87 % 1028,8 hPa 0,0 l/m 12,4 km/h (3 Bft) W-SW 253 0 min 0,000 mm 0,0 UV-I 128 W/m 3,6 C 1,2 C 20,9 km/h (4 Bft) 100,00 %
24.12.2016 13:06 5,6 C 87 % 1028,8 hPa 0,2 l/m 13,4 km/h (3 Bft) SW 236 0 min 0,000 mm 0,0 UV-I 109 W/m 3,6 C 0,6 C 19,3 km/h (3 Bft) 100,00 %
24.12.2016 13:08 5,6 C 88 % 1028,8 hPa 0,0 l/m 11,4 km/h (2 Bft) W 261 0 min 0,000 mm 0,0 UV-I 88 W/m 3,8 C 1,8 C 19,3 km/h (3 Bft) 100,00 %
24.12.2016 13:10 5,5 C 88 % 1028,8 hPa 0,0 l/m 14,6 km/h (3 Bft) SW 236 0 min 0,000 mm 0,0 UV-I 77 W/m 3,7 C -0,1 C 24,1 km/h (4 Bft) 96,43 %
24.12.2016 13:12 5,5 C 88 % 1028,7 hPa 0,0 l/m 12,9 km/h (3 Bft) W-SW 248 0 min 0,000 mm 0,0 UV-I 78 W/m 3,7 C 0,8 C 17,7 km/h (3 Bft) 97,37 %
24.12.2016 13:14 5,5 C 88 % 1028,6 hPa 0,0 l/m 12,8 km/h (3 Bft) SW 225 0 min 0,000 mm 0,0 UV-I 79 W/m 3,7 C 0,9 C 17,7 km/h (3 Bft) 98,31 %
24.12.2016 13:16 5,5 C 88 % 1028,7 hPa 0,0 l/m 11,7 km/h (2 Bft) W 266 0 min 0,000 mm 0,0 UV-I 79 W/m 3,7 C 1,5 C 16,1 km/h (3 Bft) 97,73 %
24.12.2016 13:18 5,6 C 87 % 1028,6 hPa 0,0 l/m 12,2 km/h (2 Bft) W-SW 242 0 min 0,000 mm 0,0 UV-I 75 W/m 3,6 C 1,3 C 17,7 km/h (3 Bft) 96,00 %
24.12.2016 13:20 5,6 C 87 % 1028,7 hPa 0,0 l/m 13,6 km/h (3 Bft) W-SW 253 0 min 0,000 mm 0,0 UV-I 71 W/m 3,6 C 0,5 C 19,3 km/h (3 Bft) 97,37 %
24.12.2016 13:22 5,6 C 87 % 1028,8 hPa 0,0 l/m 12,3 km/h (3 Bft) W-SW 247 0 min 0,000 mm 0,0 UV-I 67 W/m 3,6 C 1,3 C 16,1 km/h (3 Bft) 98,00 %
24.12.2016 13:24 5,6 C 87 % 1028,8 hPa 0,0 l/m 10,9 km/h (2 Bft) W-SW 252 0 min 0,000 mm 0,0 UV-I 68 W/m 3,6 C 2,1 C 16,1 km/h (3 Bft) 96,23 %
24.12.2016 13:26 5,6 C 87 % 1028,7 hPa 0,0 l/m 11,8 km/h (2 Bft) W 259 0 min 0,000 mm 0,0 UV-I 76 W/m 3,6 C 1,6 C 19,3 km/h (3 Bft) 92,68 %
24.12.2016 13:28 5,6 C 87 % 1028,7 hPa 0,0 l/m 12,7 km/h (3 Bft) W-SW 251 0 min 0,000 mm 0,0 UV-I 75 W/m 3,6 C 1,0 C 17,7 km/h (3 Bft) 97,56 %
24.12.2016 13:30 5,6 C 87 % 1028,7 hPa 0,0 l/m 12,0 km/h (2 Bft) W-SW 251 0 min 0,000 mm 0,0 UV-I 76 W/m 3,6 C 1,4 C 17,7 km/h (3 Bft) 96,23 %
24.12.2016 13:32 5,7 C 87 % 1028,7 hPa 0,0 l/m 13,3 km/h (3 Bft) W 263 0 min 0,000 mm 0,0 UV-I 74 W/m 3,7 C 0,8 C 17,7 km/h (3 Bft) 98,11 %
24.12.2016 13:34 5,7 C 86 % 1028,7 hPa 0,0 l/m 10,8 km/h (2 Bft) W-SW 254 0 min 0,000 mm 0,0 UV-I 68 W/m 3,5 C 2,3 C 19,3 km/h (3 Bft) 97,14 %
24.12.2016 13:36 5,7 C 86 % 1028,7 hPa 0,0 l/m 13,0 km/h (3 Bft) W-SW 240 0 min 0,000 mm 0,0 UV-I 63 W/m 3,5 C 1,0 C 20,9 km/h (4 Bft) 93,62 %
24.12.2016 13:38 5,6 C 86 % 1028,7 hPa 0,0 l/m 12,6 km/h (3 Bft) W 263 0 min 0,000 mm 0,0 UV-I 60 W/m 3,4 C 1,1 C 17,7 km/h (3 Bft) 96,30 %
24.12.2016 13:40 5,6 C 86 % 1028,7 hPa 0,0 l/m 10,7 km/h (2 Bft) W-SW 246 0 min 0,000 mm 0,0 UV-I 57 W/m 3,4 C 2,3 C 16,1 km/h (3 Bft) 97,26 %
24.12.2016 13:42 5,6 C 87 % 1028,7 hPa 0,0 l/m 9,2 km/h (2 Bft) W-SW 256 0 min 0,000 mm 0,0 UV-I 59 W/m 3,6 C 3,3 C 16,1 km/h (3 Bft) 94,00 %
24.12.2016 13:44 5,6 C 87 % 1028,7 hPa 0,0 l/m 10,8 km/h (2 Bft) W-SW 256 0 min 0,000 mm 0,0 UV-I 62 W/m 3,6 C 2,2 C 14,5 km/h (3 Bft) 100,00 %
24.12.2016 13:46 5,6 C 86 % 1028,6 hPa 0,0 l/m 10,1 km/h (2 Bft) W-SW 258 0 min 0,000 mm 0,0 UV-I 59 W/m 3,4 C 2,7 C 12,9 km/h (3 Bft) 100,00 %
24.12.2016 13:48 5,6 C 87 % 1028,5 hPa 0,0 l/m 8,2 km/h (2 Bft) SW 215 0 min 0,000 mm 0,0 UV-I 62 W/m 3,6 C 4,1 C 12,9 km/h (3 Bft) 100,00 %
24.12.2016 13:50 5,6 C 87 % 1028,4 hPa 0,0 l/m 9,1 km/h (2 Bft) W-SW 240 0 min 0,000 mm 0,0 UV-I 67 W/m 3,6 C 3,4 C 12,9 km/h (3 Bft) 96,23 %
24.12.2016 13:52 5,5 C 86 % 1028,3 hPa 0,0 l/m 6,4 km/h (2 Bft) SW 232 0 min 0,000 mm 0,0 UV-I 70 W/m 3,3 C 5,5 C 11,3 km/h (2 Bft) 97,56 %
24.12.2016 13:54 5,5 C 86 % 1028,4 hPa 0,0 l/m 6,4 km/h (2 Bft) W 263 0 min 0,000 mm 0,0 UV-I 68 W/m 3,3 C 5,5 C 11,3 km/h (2 Bft) 100,00 %
24.12.2016 13:56 5,5 C 87 % 1028,4 hPa 0,0 l/m 6,5 km/h (2 Bft) SW 228 0 min 0,000 mm 0,0 UV-I 52 W/m 3,5 C 5,4 C 11,3 km/h (2 Bft) 100,00 %
24.12.2016 13:58 5,5 C 87 % 1028,4 hPa 0,0 l/m 9,8 km/h (2 Bft) SW 232 0 min 0,000 mm 0,0 UV-I 44 W/m 3,5 C 2,8 C 16,1 km/h (3 Bft) 100,00 %
24.12.2016 14:00 5,4 C 87 % 1028,4 hPa 0,0 l/m 8,3 km/h (2 Bft) S-SW 213 0 min 0,000 mm 0,0 UV-I 40 W/m 3,4 C 3,8 C 12,9 km/h (3 Bft) 100,00 %
24.12.2016 14:02 5,5 C 87 % 1028,4 hPa 0,0 l/m 8,4 km/h (2 Bft) SW 228 0 min 0,051 mm 0,0 UV-I 38 W/m 3,5 C 3,8 C 12,9 km/h (3 Bft) 100,00 %
24.12.2016 14:04 5,5 C 87 % 1028,3 hPa 0,0 l/m 8,4 km/h (2 Bft) W-SW 258 0 min 0,000 mm 0,0 UV-I 35 W/m 3,5 C 3,8 C 11,3 km/h (2 Bft) 100,00 %
24.12.2016 14:06 5,4 C 87 % 1028,3 hPa 0,0 l/m 8,5 km/h (2 Bft) W-SW 246 0 min 0,000 mm 0,0 UV-I 33 W/m 3,4 C 3,6 C 14,5 km/h (3 Bft) 98,00 %
24.12.2016 14:08 5,4 C 87 % 1028,2 hPa 0,0 l/m 7,8 km/h (2 Bft) W-SW 254 0 min 0,000 mm 0,0 UV-I 32 W/m 3,4 C 4,2 C 12,9 km/h (3 Bft) 100,00 %
24.12.2016 14:10 5,4 C 87 % 1028,3 hPa 0,0 l/m 6,9 km/h (2 Bft) W 265 0 min 0,000 mm 0,0 UV-I 29 W/m 3,4 C 5,0 C 11,3 km/h (2 Bft) 100,00 %
24.12.2016 14:12 5,3 C 87 % 1028,2 hPa 0,0 l/m 8,4 km/h (2 Bft) W-SW 244 0 min 0,000 mm 0,0 UV-I 26 W/m 3,3 C 3,6 C 12,9 km/h (3 Bft) 98,21 %
24.12.2016 14:14 5,3 C 87 % 1028,2 hPa 0,0 l/m 10,0 km/h (2 Bft) W-SW 242 0 min 0,000 mm 0,0 UV-I 26 W/m 3,3 C 2,4 C 14,5 km/h (3 Bft) 97,37 %
24.12.2016 14:16 5,4 C 87 % 1028,2 hPa 0,0 l/m 10,0 km/h (2 Bft) W 259 0 min 0,000 mm 0,0 UV-I 26 W/m 3,4 C 2,5 C 14,5 km/h (3 Bft) 96,43 %
24.12.2016 14:18 5,3 C 88 % 1028,2 hPa 0,0 l/m 7,6 km/h (2 Bft) W-SW 258 0 min 0,000 mm 0,0 UV-I 26 W/m 3,5 C 4,3 C 12,9 km/h (3 Bft) 100,00 %
24.12.2016 14:20 5,3 C 88 % 1028,3 hPa 0,0 l/m 8,9 km/h (2 Bft) W 263 0 min 0,000 mm 0,0 UV-I 26 W/m 3,5 C 3,2 C 16,1 km/h (3 Bft) 97,87 %
24.12.2016 14:22 5,3 C 88 % 1028,3 hPa 0,0 l/m 7,7 km/h (2 Bft) W-SW 253 0 min 0,000 mm 0,0 UV-I 25 W/m 3,5 C 4,2 C 11,3 km/h (2 Bft) 100,00 %
24.12.2016 14:24 5,3 C 88 % 1028,3 hPa 0,0 l/m 8,3 km/h (2 Bft) W-SW 256 0 min 0,000 mm 0,0 UV-I 25 W/m 3,5 C 3,7 C 12,9 km/h (3 Bft) 100,00 %
24.12.2016 14:25 5,3 C 88 % 1028,3 hPa 0,0 l/m 8,0 km/h (2 Bft) W-SW 247 0 min 0,000 mm 0,0 UV-I 26 W/m 3,5 C 3,9 C 12,9 km/h (3 Bft) 98,25 %
24.12.2016 14:30 5,3 C 88 % 1028,3 hPa 0,0 l/m 9,7 km/h (2 Bft) SW 225 0 min 0,000 mm 0,0 UV-I 30 W/m 3,5 C 2,6 C 14,5 km/h (3 Bft) 100,00 %
24.12.2016 14:35 5,3 C 88 % 1028,4 hPa 0,0 l/m 11,3 km/h (2 Bft) W-SW 247 0 min 0,000 mm 0,0 UV-I 25 W/m 3,5 C 1,5 C 16,1 km/h (3 Bft) 99,12 %
24.12.2016 14:38 5,3 C 88 % 1028,4 hPa 0,0 l/m 9,7 km/h (2 Bft) W-SW 250 0 min 0,000 mm 0,0 UV-I 21 W/m 3,5 C 2,6 C 12,9 km/h (3 Bft) 100,00 %
24.12.2016 14:40 5,3 C 88 % 1028,3 hPa 0,0 l/m 12,3 km/h (3 Bft) W-SW 254 0 min 0,000 mm 0,0 UV-I 21 W/m 3,5 C 0,9 C 16,1 km/h (3 Bft) 98,00 %
24.12.2016 14:42 5,3 C 88 % 1028,4 hPa 0,0 l/m 12,1 km/h (2 Bft) W-SW 240 0 min 0,000 mm 0,0 UV-I 22 W/m 3,5 C 1,0 C 17,7 km/h (3 Bft) 100,00 %
24.12.2016 14:44 5,3 C 88 % 1028,4 hPa 0,0 l/m 10,8 km/h (2 Bft) W 259 0 min 0,000 mm 0,0 UV-I 20 W/m 3,5 C 1,9 C 14,5 km/h (3 Bft) 100,00 %
24.12.2016 14:46 5,3 C 89 % 1028,4 hPa 0,0 l/m 11,6 km/h (2 Bft) W-SW 242 0 min 0,000 mm 0,0 UV-I 19 W/m 3,6 C 1,3 C 16,1 km/h (3 Bft) 100,00 %
24.12.2016 14:48 5,2 C 89 % 1028,3 hPa 0,0 l/m 9,3 km/h (2 Bft) W 259 0 min 0,000 mm 0,0 UV-I 22 W/m 3,5 C 2,8 C 14,5 km/h (3 Bft) 100,00 %
24.12.2016 14:50 5,2 C 89 % 1028,2 hPa 0,0 l/m 8,8 km/h (2 Bft) W-SW 257 0 min 0,000 mm 0,0 UV-I 26 W/m 3,5 C 3,2 C 12,9 km/h (3 Bft) 100,00 %
24.12.2016 14:52 5,2 C 89 % 1028,2 hPa 0,0 l/m 7,0 km/h (2 Bft) W-SW 246 0 min 0,000 mm 0,0 UV-I 26 W/m 3,5 C 4,7 C 11,3 km/h (2 Bft) 100,00 %
24.12.2016 14:54 5,1 C 89 % 1028,2 hPa 0,0 l/m 5,8 km/h (2 Bft) W-SW 242 0 min 0,000 mm 0,0 UV-I 26 W/m 3,4 C 5,1 C 8,0 km/h (2 Bft) 100,00 %
24.12.2016 14:55 5,1 C 90 % 1028,1 hPa 0,0 l/m 6,4 km/h (2 Bft) W-SW 247 0 min 0,000 mm 0,0 UV-I 26 W/m 3,6 C 5,1 C 11,3 km/h (2 Bft) 100,00 %
24.12.2016 15:00 5,0 C 90 % 1028,3 hPa 0,0 l/m 4,8 km/h (1 Bft) SW 225 0 min 0,025 mm 0,0 UV-I 24 W/m 3,5 C 5,0 C 8,0 km/h (2 Bft) 99,12 %
24.12.2016 15:06 4,8 C 91 % 1028,4 hPa 0,2 l/m 5,3 km/h (1 Bft) W-SW 237 0 min 0,000 mm 0,0 UV-I 23 W/m 3,5 C 4,8 C 6,4 km/h (2 Bft) 100,00 %
24.12.2016 15:08 4,7 C 92 % 1028,4 hPa 0,0 l/m 5,8 km/h (2 Bft) SW 230 0 min 0,000 mm 0,0 UV-I 23 W/m 3,5 C 4,7 C 8,0 km/h (2 Bft) 97,87 %
24.12.2016 15:10 4,7 C 92 % 1028,4 hPa 0,0 l/m 7,2 km/h (2 Bft) SW 223 0 min 0,000 mm 0,0 UV-I 25 W/m 3,5 C 4,0 C 11,3 km/h (2 Bft) 97,87 %
24.12.2016 15:12 4,7 C 92 % 1028,4 hPa 0,0 l/m 8,2 km/h (2 Bft) W-SW 237 0 min 0,000 mm 0,0 UV-I 23 W/m 3,5 C 3,1 C 12,9 km/h (3 Bft) 98,00 %
24.12.2016 15:14 4,6 C 92 % 1028,4 hPa 0,2 l/m 6,6 km/h (2 Bft) SW 235 0 min 0,000 mm 0,0 UV-I 25 W/m 3,4 C 4,4 C 9,7 km/h (2 Bft) 100,00 %
24.12.2016 15:16 4,6 C 93 % 1028,3 hPa 0,0 l/m 7,0 km/h (2 Bft) W-SW 250 0 min 0,000 mm 0,0 UV-I 25 W/m 3,6 C 4,1 C 11,3 km/h (2 Bft) 100,00 %
24.12.2016 15:18 4,6 C 93 % 1028,4 hPa 0,0 l/m 6,8 km/h (2 Bft) SW 235 0 min 0,000 mm 0,0 UV-I 25 W/m 3,6 C 4,3 C 9,7 km/h (2 Bft) 97,44 %
24.12.2016 15:20 4,6 C 93 % 1028,4 hPa 0,0 l/m 6,6 km/h (2 Bft) S-SW 211 0 min 0,000 mm 0,0 UV-I 20 W/m 3,6 C 4,4 C 9,7 km/h (2 Bft) 98,31 %
24.12.2016 15:22 4,6 C 93 % 1028,4 hPa 0,0 l/m 8,0 km/h (2 Bft) SW 228 0 min 0,000 mm 0,0 UV-I 14 W/m 3,6 C 3,2 C 11,3 km/h (2 Bft) 97,56 %
24.12.2016 15:24 4,5 C 93 % 1028,4 hPa 0,0 l/m 8,3 km/h (2 Bft) SW 233 0 min 0,000 mm 0,0 UV-I 14 W/m 3,5 C 2,8 C 11,3 km/h (2 Bft) 97,87 %
24.12.2016 15:26 4,5 C 94 % 1028,5 hPa 0,0 l/m 7,5 km/h (2 Bft) S-SW 211 0 min 0,000 mm 0,0 UV-I 11 W/m 3,6 C 3,5 C 11,3 km/h (2 Bft) 95,74 %
24.12.2016 15:28 4,4 C 94 % 1028,6 hPa 0,0 l/m 6,6 km/h (2 Bft) SW 228 0 min 0,000 mm 0,0 UV-I 11 W/m 3,5 C 4,2 C 8,0 km/h (2 Bft) 97,87 %
24.12.2016 15:30 4,4 C 94 % 1028,6 hPa 0,0 l/m 6,7 km/h (2 Bft) SW 223 0 min 0,000 mm 0,0 UV-I 12 W/m 3,5 C 4,1 C 9,7 km/h (2 Bft) 98,04 %
24.12.2016 15:32 4,4 C 94 % 1028,7 hPa 0,2 l/m 7,4 km/h (2 Bft) SW 232 0 min 0,000 mm 0,0 UV-I 14 W/m 3,5 C 3,5 C 11,3 km/h (2 Bft) 97,37 %
24.12.2016 15:34 4,3 C 94 % 1028,7 hPa 0,0 l/m 9,0 km/h (2 Bft) W-SW 238 0 min 0,000 mm 0,0 UV-I 12 W/m 3,4 C 2,1 C 12,9 km/h (3 Bft) 98,31 %
24.12.2016 15:36 4,3 C 94 % 1028,7 hPa 0,0 l/m 7,9 km/h (2 Bft) S-SW 211 0 min 0,000 mm 0,0 UV-I 12 W/m 3,4 C 3,0 C 12,9 km/h (3 Bft) 97,73 %
24.12.2016 15:38 4,3 C 94 % 1028,6 hPa 0,0 l/m 7,4 km/h (2 Bft) W-SW 244 0 min 0,000 mm 0,0 UV-I 11 W/m 3,4 C 3,4 C 14,5 km/h (3 Bft) 93,62 %
24.12.2016 15:40 4,3 C 94 % 1028,6 hPa 0,0 l/m 6,7 km/h (2 Bft) SW 216 0 min 0,000 mm 0,0 UV-I 9 W/m 3,4 C 4,0 C 9,7 km/h (2 Bft) 96,00 %
24.12.2016 15:42 4,3 C 95 % 1028,7 hPa 0,2 l/m 5,5 km/h (1 Bft) SW 234 0 min 0,000 mm 0,0 UV-I 9 W/m 3,6 C 4,3 C 8,0 km/h (2 Bft) 97,18 %
24.12.2016 15:44 4,3 C 95 % 1028,8 hPa 0,0 l/m 6,2 km/h (2 Bft) SW 223 0 min 0,000 mm 0,0 UV-I 11 W/m 3,6 C 4,3 C 9,7 km/h (2 Bft) 95,12 %
24.12.2016 15:46 4,2 C 95 % 1028,8 hPa 0,0 l/m 4,4 km/h (1 Bft) S-SW 211 0 min 0,000 mm 0,0 UV-I 10 W/m 3,5 C 4,2 C 8,0 km/h (2 Bft) 96,00 %
24.12.2016 15:48 4,2 C 95 % 1028,8 hPa 0,2 l/m 5,5 km/h (1 Bft) SW 231 0 min 0,000 mm 0,0 UV-I 7 W/m 3,5 C 4,2 C 9,7 km/h (2 Bft) 97,73 %
24.12.2016 15:50 4,2 C 95 % 1028,8 hPa 0,0 l/m 7,3 km/h (2 Bft) SW 227 0 min 0,000 mm 0,0 UV-I 7 W/m 3,5 C 3,4 C 12,9 km/h (3 Bft) 100,00 %
24.12.2016 15:52 4,2 C 95 % 1028,8 hPa 0,0 l/m 5,5 km/h (1 Bft) SW 234 0 min 0,000 mm 0,0 UV-I 7 W/m 3,5 C 4,2 C 11,3 km/h (2 Bft) 98,00 %
24.12.2016 15:54 4,2 C 95 % 1028,8 hPa 0,0 l/m 6,8 km/h (2 Bft) SW 230 0 min 0,000 mm 0,0 UV-I 7 W/m 3,5 C 3,8 C 9,7 km/h (2 Bft) 100,00 %
24.12.2016 15:56 4,2 C 95 % 1028,8 hPa 0,0 l/m 6,8 km/h (2 Bft) SW 236 0 min 0,000 mm 0,0 UV-I 7 W/m 3,5 C 3,8 C 11,3 km/h (2 Bft) 96,36 %
24.12.2016 15:58 4,3 C 95 % 1028,7 hPa 0,0 l/m 6,1 km/h (2 Bft) SW 216 0 min 0,000 mm 0,0 UV-I 6 W/m 3,6 C 4,3 C 9,7 km/h (2 Bft) 100,00 %
24.12.2016 16:00 4,3 C 95 % 1028,6 hPa 0,0 l/m 10,1 km/h (2 Bft) S-SW 197 0 min 0,000 mm 0,0 UV-I 6 W/m 3,6 C 1,2 C 16,1 km/h (3 Bft) 100,00 %
24.12.2016 16:02 4,3 C 95 % 1028,7 hPa 0,0 l/m 9,0 km/h (2 Bft) SW 223 0 min 0,000 mm 0,0 UV-I 7 W/m 3,6 C 2,1 C 12,9 km/h (3 Bft) 100,00 %
24.12.2016 16:04 4,3 C 95 % 1028,7 hPa 0,2 l/m 9,7 km/h (2 Bft) S-SW 200 0 min 0,000 mm 0,0 UV-I 9 W/m 3,6 C 1,5 C 14,5 km/h (3 Bft) 100,00 %
24.12.2016 16:06 4,3 C 95 % 1028,7 hPa 0,0 l/m 11,5 km/h (2 Bft) SW 224 0 min 0,000 mm 0,0 UV-I 10 W/m 3,6 C 0,3 C 20,9 km/h (4 Bft) 100,00 %
24.12.2016 16:08 4,3 C 95 % 1028,8 hPa 0,0 l/m 12,1 km/h (2 Bft) W-SW 238 0 min 0,000 mm 0,0 UV-I 7 W/m 3,6 C -0,1 C 22,5 km/h (4 Bft) 100,00 %
24.12.2016 16:10 4,3 C 95 % 1028,8 hPa 0,0 l/m 16,1 km/h (3 Bft) SW 236 0 min 0,000 mm 0,0 UV-I 5 W/m 3,6 C -2,3 C 22,5 km/h (4 Bft) 96,15 %
24.12.2016 16:12 4,3 C 95 % 1028,8 hPa 0,0 l/m 15,7 km/h (3 Bft) W 271 0 min 0,000 mm 0,0 UV-I 2 W/m 3,6 C -2,1 C 24,1 km/h (4 Bft) 100,00 %
24.12.2016 16:14 4,4 C 96 % 1028,7 hPa 0,0 l/m 16,2 km/h (3 Bft) W-SW 238 0 min 0,000 mm 0,0 UV-I 0 W/m 3,8 C -2,3 C 25,7 km/h (4 Bft) 100,00 %
24.12.2016 16:16 4,4 C 96 % 1028,7 hPa 0,0 l/m 15,5 km/h (3 Bft) W-SW 239 0 min 0,000 mm 0,0 UV-I 0 W/m 3,8 C -1,9 C 27,4 km/h (4 Bft) 97,56 %
24.12.2016 16:18 4,5 C 96 % 1028,7 hPa 0,0 l/m 15,7 km/h (3 Bft) W 281 0 min 0,000 mm 0,0 UV-I 0 W/m 3,9 C -1,9 C 22,5 km/h (4 Bft) 98,11 %
24.12.2016 16:20 4,5 C 96 % 1028,6 hPa 0,0 l/m 13,0 km/h (3 Bft) SW 226 0 min 0,000 mm 0,0 UV-I 0 W/m 3,9 C -0,4 C 20,9 km/h (4 Bft) 100,00 %
24.12.2016 16:22 4,6 C 96 % 1028,7 hPa 0,0 l/m 18,2 km/h (3 Bft) SW 225 0 min 0,000 mm 0,0 UV-I 0 W/m 4,0 C -2,9 C 29,0 km/h (5 Bft) 98,00 %
24.12.2016 16:24 4,6 C 95 % 1028,8 hPa 0,0 l/m 17,1 km/h (3 Bft) SW 232 0 min 0,000 mm 0,0 UV-I 0 W/m 3,9 C -2,4 C 27,4 km/h (4 Bft) 100,00 %
24.12.2016 16:26 4,6 C 95 % 1028,8 hPa 0,0 l/m 18,4 km/h (3 Bft) W-SW 242 0 min 0,000 mm 0,0 UV-I 0 W/m 3,9 C -3,0 C 27,4 km/h (4 Bft) 100,00 %
24.12.2016 16:28 4,6 C 96 % 1028,7 hPa 0,0 l/m 17,0 km/h (3 Bft) SW 226 0 min 0,000 mm 0,0 UV-I 0 W/m 4,0 C -2,4 C 27,4 km/h (4 Bft) 100,00 %
24.12.2016 16:30 4,6 C 96 % 1028,6 hPa 0,0 l/m 16,6 km/h (3 Bft) SW 232 0 min 0,000 mm 0,0 UV-I 0 W/m 4,0 C -2,2 C 25,7 km/h (4 Bft) 97,62 %
24.12.2016 16:32 4,7 C 96 % 1028,5 hPa 0,0 l/m 16,5 km/h (3 Bft) SW 229 0 min 0,000 mm 0,0 UV-I 0 W/m 4,1 C -2,0 C 25,7 km/h (4 Bft) 100,00 %
24.12.2016 16:34 4,7 C 96 % 1028,5 hPa 0,0 l/m 17,7 km/h (3 Bft) SW 236 0 min 0,000 mm 0,0 UV-I 0 W/m 4,1 C -2,6 C 30,6 km/h (5 Bft) 100,00 %
24.12.2016 16:36 4,7 C 96 % 1028,5 hPa 0,0 l/m 18,7 km/h (3 Bft) S-SW 206 0 min 0,000 mm 0,0 UV-I 0 W/m 4,1 C -3,0 C 32,2 km/h (5 Bft) 100,00 %
24.12.2016 16:38 4,7 C 96 % 1028,5 hPa 0,0 l/m 17,7 km/h (3 Bft) SW 236 0 min 0,000 mm 0,0 UV-I 0 W/m 4,1 C -2,6 C 29,0 km/h (5 Bft) 100,00 %
24.12.2016 16:40 4,7 C 96 % 1028,4 hPa 0,0 l/m 17,4 km/h (3 Bft) W 261 0 min 0,000 mm 0,0 UV-I 0 W/m 4,1 C -2,5 C 29,0 km/h (5 Bft) 100,00 %
24.12.2016 16:42 4,8 C 96 % 1028,3 hPa 0,0 l/m 17,0 km/h (3 Bft) S-SW 204 0 min 0,000 mm 0,0 UV-I 0 W/m 4,2 C -2,1 C 24,1 km/h (4 Bft) 100,00 %
24.12.2016 16:44 4,8 C 96 % 1028,4 hPa 0,0 l/m 17,2 km/h (3 Bft) W-SW 241 0 min 0,000 mm 0,0 UV-I 0 W/m 4,2 C -2,2 C 27,4 km/h (4 Bft) 100,00 %
24.12.2016 16:46 4,8 C 96 % 1028,4 hPa 0,0 l/m 19,0 km/h (3 Bft) SW 226 0 min 0,000 mm 0,0 UV-I 0 W/m 4,2 C -3,0 C 25,7 km/h (4 Bft) 100,00 %
24.12.2016 16:48 4,8 C 96 % 1028,3 hPa 0,0 l/m 15,3 km/h (3 Bft) SW 218 0 min 0,000 mm 0,0 UV-I 0 W/m 4,2 C -1,3 C 22,5 km/h (4 Bft) 100,00 %
24.12.2016 16:50 4,8 C 96 % 1028,4 hPa 0,0 l/m 17,9 km/h (3 Bft) SW 214 0 min 0,000 mm 0,0 UV-I 0 W/m 4,2 C -2,5 C 27,4 km/h (4 Bft) 98,11 %
24.12.2016 16:52 4,8 C 96 % 1028,4 hPa 0,0 l/m 18,8 km/h (3 Bft) SW 217 0 min 0,000 mm 0,0 UV-I 0 W/m 4,2 C -2,9 C 29,0 km/h (5 Bft) 100,00 %
24.12.2016 16:54 4,9 C 96 % 1028,5 hPa 0,0 l/m 20,3 km/h (4 Bft) W-SW 244 0 min 0,000 mm 0,0 UV-I 0 W/m 4,3 C -3,4 C 27,4 km/h (4 Bft) 100,00 %
24.12.2016 16:56 4,9 C 96 % 1028,5 hPa 0,0 l/m 19,2 km/h (3 Bft) S-SW 213 0 min 0,000 mm 0,0 UV-I 0 W/m 4,3 C -3,0 C 29,0 km/h (5 Bft) 100,00 %
24.12.2016 16:58 4,9 C 96 % 1028,6 hPa 0,0 l/m 17,9 km/h (3 Bft) W-SW 240 0 min 0,000 mm 0,0 UV-I 0 W/m 4,3 C -2,4 C 24,1 km/h (4 Bft) 100,00 %
24.12.2016 17:00 5,0 C 96 % 1028,7 hPa 0,0 l/m 17,6 km/h (3 Bft) W-SW 240 0 min 0,000 mm 0,0 UV-I 0 W/m 4,4 C -2,2 C 25,7 km/h (4 Bft) 98,00 %
24.12.2016 17:02 5,0 C 96 % 1028,6 hPa 0,0 l/m 15,9 km/h (3 Bft) W-SW 247 0 min 0,000 mm 0,0 UV-I 0 W/m 4,4 C -1,4 C 22,5 km/h (4 Bft) 98,21 %
24.12.2016 17:04 5,0 C 96 % 1028,6 hPa 0,0 l/m 16,3 km/h (3 Bft) W-SW 250 0 min 0,000 mm 0,0 UV-I 0 W/m 4,4 C -1,6 C 24,1 km/h (4 Bft) 96,30 %
24.12.2016 17:06 5,0 C 96 % 1028,6 hPa 0,0 l/m 16,2 km/h (3 Bft) SW 223 0 min 0,000 mm 0,0 UV-I 0 W/m 4,4 C -1,5 C 24,1 km/h (4 Bft) 100,00 %
24.12.2016 17:08 5,1 C 96 % 1028,6 hPa 0,0 l/m 14,2 km/h (3 Bft) SW 229 0 min 0,000 mm 0,0 UV-I 0 W/m 4,5 C -0,4 C 20,9 km/h (4 Bft) 100,00 %
24.12.2016 17:10 5,1 C 96 % 1028,5 hPa 0,0 l/m 12,8 km/h (3 Bft) S 190 0 min 0,000 mm 0,0 UV-I 0 W/m 4,5 C 0,4 C 17,7 km/h (3 Bft) 98,00 %
24.12.2016 17:12 5,1 C 96 % 1028,5 hPa 0,0 l/m 14,7 km/h (3 Bft) W 263 0 min 0,000 mm 0,0 UV-I 0 W/m 4,5 C -0,6 C 22,5 km/h (4 Bft) 100,00 %
24.12.2016 17:14 5,1 C 96 % 1028,6 hPa 0,0 l/m 16,3 km/h (3 Bft) SW 230 0 min 0,000 mm 0,0 UV-I 0 W/m 4,5 C -1,4 C 24,1 km/h (4 Bft) 100,00 %
24.12.2016 17:16 5,1 C 96 % 1028,6 hPa 0,0 l/m 15,6 km/h (3 Bft) W-SW 240 0 min 0,000 mm 0,0 UV-I 0 W/m 4,5 C -1,1 C 20,9 km/h (4 Bft) 100,00 %
24.12.2016 17:18 5,1 C 96 % 1028,7 hPa 0,0 l/m 16,2 km/h (3 Bft) W-SW 239 0 min 0,000 mm 0,0 UV-I 0 W/m 4,5 C -1,4 C 22,5 km/h (4 Bft) 100,00 %
24.12.2016 17:20 5,1 C 96 % 1028,7 hPa 0,0 l/m 19,6 km/h (3 Bft) SW 219 0 min 0,000 mm 0,0 UV-I 0 W/m 4,5 C -2,9 C 27,4 km/h (4 Bft) 100,00 %
24.12.2016 17:22 5,2 C 96 % 1028,6 hPa 0,0 l/m 19,9 km/h (4 Bft) SW 234 0 min 0,000 mm 0,0 UV-I 0 W/m 4,6 C -2,9 C 29,0 km/h (5 Bft) 97,37 %
24.12.2016 17:24 5,2 C 96 % 1028,6 hPa 0,0 l/m 20,0 km/h (4 Bft) SW 234 0 min 0,000 mm 0,0 UV-I 0 W/m 4,6 C -2,9 C 29,0 km/h (5 Bft) 100,00 %
24.12.2016 17:26 5,2 C 96 % 1028,6 hPa 0,0 l/m 16,8 km/h (3 Bft) W-SW 246 0 min 0,000 mm 0,0 UV-I 0 W/m 4,6 C -1,6 C 24,1 km/h (4 Bft) 100,00 %
24.12.2016 17:28 5,2 C 96 % 1028,7 hPa 0,0 l/m 17,7 km/h (3 Bft) SW 229 0 min 0,000 mm 0,0 UV-I 0 W/m 4,6 C -2,0 C 24,1 km/h (4 Bft) 100,00 %
24.12.2016 17:30 5,2 C 96 % 1028,7 hPa 0,0 l/m 15,2 km/h (3 Bft) S-SW 213 0 min 0,000 mm 0,0 UV-I 0 W/m 4,6 C -0,8 C 24,1 km/h (4 Bft) 96,23 %
24.12.2016 17:32 5,2 C 96 % 1028,7 hPa 0,0 l/m 17,9 km/h (3 Bft) SW 218 0 min 0,000 mm 0,0 UV-I 0 W/m 4,6 C -2,0 C 27,4 km/h (4 Bft) 97,56 %
24.12.2016 17:34 5,2 C 96 % 1028,7 hPa 0,0 l/m 17,1 km/h (3 Bft) W 260 0 min 0,000 mm 0,0 UV-I 0 W/m 4,6 C -1,7 C 22,5 km/h (4 Bft) 96,61 %
24.12.2016 17:36 5,2 C 96 % 1028,8 hPa 0,0 l/m 13,7 km/h (3 Bft) W-SW 239 0 min 0,000 mm 0,0 UV-I 0 W/m 4,6 C 0,0 C 20,9 km/h (4 Bft) 97,37 %
24.12.2016 17:38 5,2 C 96 % 1028,9 hPa 0,0 l/m 15,2 km/h (3 Bft) W-SW 242 0 min 0,000 mm 0,0 UV-I 0 W/m 4,6 C -0,8 C 22,5 km/h (4 Bft) 97,14 %
24.12.2016 17:40 5,2 C 96 % 1028,9 hPa 0,0 l/m 17,6 km/h (3 Bft) W-SW 246 0 min 0,000 mm 0,0 UV-I 0 W/m 4,6 C -1,9 C 27,4 km/h (4 Bft) 94,64 %
24.12.2016 17:42 5,2 C 96 % 1028,9 hPa 0,0 l/m 17,0 km/h (3 Bft) W-SW 246 0 min 0,000 mm 0,0 UV-I 0 W/m 4,6 C -1,6 C 24,1 km/h (4 Bft) 97,73 %
24.12.2016 17:44 5,2 C 96 % 1029,0 hPa 0,0 l/m 20,2 km/h (4 Bft) W 264 0 min 0,000 mm 0,0 UV-I 0 W/m 4,6 C -3,0 C 30,6 km/h (5 Bft) 96,61 %
24.12.2016 17:46 5,3 C 96 % 1028,9 hPa 0,0 l/m 14,0 km/h (3 Bft) W-SW 250 0 min 0,000 mm 0,0 UV-I 0 W/m 4,7 C -0,0 C 19,3 km/h (3 Bft) 97,56 %
24.12.2016 17:48 5,3 C 96 % 1028,9 hPa 0,0 l/m 14,4 km/h (3 Bft) W-SW 250 0 min 0,000 mm 0,0 UV-I 0 W/m 4,7 C -0,3 C 20,9 km/h (4 Bft) 94,34 %
24.12.2016 17:50 5,3 C 96 % 1029,0 hPa 0,0 l/m 13,4 km/h (3 Bft) W-SW 246 0 min 0,000 mm 0,0 UV-I 0 W/m 4,7 C 0,3 C 20,9 km/h (4 Bft) 97,37 %
24.12.2016 17:52 5,3 C 96 % 1029,0 hPa 0,0 l/m 15,7 km/h (3 Bft) W-SW 240 0 min 0,000 mm 0,0 UV-I 0 W/m 4,7 C -0,9 C 22,5 km/h (4 Bft) 98,00 %
24.12.2016 17:54 5,3 C 96 % 1028,9 hPa 0,2 l/m 14,0 km/h (3 Bft) W 260 0 min 0,000 mm 0,0 UV-I 0 W/m 4,7 C -0,0 C 19,3 km/h (3 Bft) 95,24 %
24.12.2016 17:56 5,3 C 96 % 1028,9 hPa 0,0 l/m 13,8 km/h (3 Bft) SW 232 0 min 0,000 mm 0,0 UV-I 0 W/m 4,7 C 0,1 C 19,3 km/h (3 Bft) 100,00 %
24.12.2016 17:58 5,3 C 96 % 1029,0 hPa 0,0 l/m 16,2 km/h (3 Bft) SW 223 0 min 0,000 mm 0,0 UV-I 0 W/m 4,7 C -1,1 C 24,1 km/h (4 Bft) 98,04 %
24.12.2016 18:00 5,3 C 96 % 1028,9 hPa 0,0 l/m 17,0 km/h (3 Bft) W-SW 243 0 min 0,000 mm 0,0 UV-I 0 W/m 4,7 C -1,5 C 24,1 km/h (4 Bft) 97,37 %
24.12.2016 18:02 5,3 C 96 % 1028,9 hPa 0,0 l/m 16,6 km/h (3 Bft) W-SW 242 0 min 0,000 mm 0,0 UV-I 0 W/m 4,7 C -1,3 C 22,5 km/h (4 Bft) 96,43 %
24.12.2016 18:04 5,3 C 96 % 1028,7 hPa 0,0 l/m 18,6 km/h (3 Bft) W-SW 250 0 min 0,000 mm 0,0 UV-I 0 W/m 4,7 C -2,2 C 22,5 km/h (4 Bft) 100,00 %
24.12.2016 18:06 5,3 C 96 % 1028,8 hPa 0,0 l/m 18,1 km/h (3 Bft) W-SW 254 0 min 0,000 mm 0,0 UV-I 0 W/m 4,7 C -2,0 C 25,7 km/h (4 Bft) 97,37 %
24.12.2016 18:08 5,3 C 96 % 1028,8 hPa 0,0 l/m 18,4 km/h (3 Bft) W 263 0 min 0,000 mm 0,0 UV-I 0 W/m 4,7 C -2,1 C 22,5 km/h (4 Bft) 97,56 %
24.12.2016 18:10 5,3 C 96 % 1028,8 hPa 0,0 l/m 19,3 km/h (3 Bft) SW 233 0 min 0,000 mm 0,0 UV-I 0 W/m 4,7 C -2,5 C 27,4 km/h (4 Bft) 100,00 %
24.12.2016 18:12 5,3 C 97 % 1028,7 hPa 0,0 l/m 17,6 km/h (3 Bft) S-SW 199 0 min 0,000 mm 0,0 UV-I 0 W/m 4,9 C -1,8 C 24,1 km/h (4 Bft) 100,00 %
24.12.2016 18:14 5,3 C 97 % 1028,7 hPa 0,0 l/m 20,6 km/h (4 Bft) SW 219 0 min 0,000 mm 0,0 UV-I 0 W/m 4,9 C -3,0 C 29,0 km/h (5 Bft) 97,37 %
24.12.2016 18:16 5,3 C 97 % 1028,6 hPa 0,0 l/m 19,2 km/h (3 Bft) SW 221 0 min 0,000 mm 0,0 UV-I 0 W/m 4,9 C -2,5 C 30,6 km/h (5 Bft) 100,00 %
24.12.2016 18:18 5,3 C 97 % 1028,6 hPa 0,0 l/m 17,0 km/h (3 Bft) SW 231 0 min 0,000 mm 0,0 UV-I 0 W/m 4,9 C -1,5 C 25,7 km/h (4 Bft) 100,00 %
24.12.2016 18:20 5,3 C 97 % 1028,5 hPa 0,0 l/m 18,5 km/h (3 Bft) SW 219 0 min 0,000 mm 0,0 UV-I 0 W/m 4,9 C -2,2 C 29,0 km/h (5 Bft) 97,87 %
24.12.2016 18:22 5,2 C 97 % 1028,5 hPa 0,0 l/m 18,5 km/h (3 Bft) S-SW 213 0 min 0,000 mm 0,0 UV-I 0 W/m 4,8 C -2,3 C 29,0 km/h (5 Bft) 100,00 %
24.12.2016 18:24 5,2 C 97 % 1028,4 hPa 0,0 l/m 20,6 km/h (4 Bft) SW 232 0 min 0,000 mm 0,0 UV-I 0 W/m 4,8 C -3,1 C 30,6 km/h (5 Bft) 97,87 %
24.12.2016 18:26 5,2 C 97 % 1028,4 hPa 0,0 l/m 18,3 km/h (3 Bft) S-SW 211 0 min 0,000 mm 0,0 UV-I 0 W/m 4,8 C -2,2 C 27,4 km/h (4 Bft) 100,00 %
24.12.2016 18:28 5,2 C 97 % 1028,6 hPa 0,0 l/m 18,7 km/h (3 Bft) W 261 0 min 0,000 mm 0,0 UV-I 0 W/m 4,8 C -2,4 C 24,1 km/h (4 Bft) 100,00 %
24.12.2016 18:30 5,2 C 97 % 1028,6 hPa 0,0 l/m 18,1 km/h (3 Bft) SW 229 0 min 0,000 mm 0,0 UV-I 0 W/m 4,8 C -2,1 C 25,7 km/h (4 Bft) 100,00 %
24.12.2016 18:32 5,3 C 97 % 1028,7 hPa 0,0 l/m 17,2 km/h (3 Bft) SW 236 0 min 0,000 mm 0,0 UV-I 0 W/m 4,9 C -1,6 C 24,1 km/h (4 Bft) 100,00 %
24.12.2016 18:34 5,3 C 97 % 1028,6 hPa 0,0 l/m 14,7 km/h (3 Bft) W-SW 238 0 min 0,000 mm 0,0 UV-I 0 W/m 4,9 C -0,4 C 20,9 km/h (4 Bft) 100,00 %
24.12.2016 18:36 5,3 C 97 % 1028,8 hPa 0,0 l/m 17,7 km/h (3 Bft) SW 218 0 min 0,000 mm 0,0 UV-I 0 W/m 4,9 C -1,8 C 29,0 km/h (5 Bft) 100,00 %
24.12.2016 18:38 5,3 C 97 % 1028,8 hPa 0,0 l/m 13,9 km/h (3 Bft) SW 217 0 min 0,000 mm 0,0 UV-I 0 W/m 4,9 C 0,0 C 22,5 km/h (4 Bft) 100,00 %
24.12.2016 18:40 5,3 C 97 % 1028,9 hPa 0,0 l/m 14,4 km/h (3 Bft) SW 236 0 min 0,000 mm 0,0 UV-I 0 W/m 4,9 C -0,3 C 22,5 km/h (4 Bft) 100,00 %
24.12.2016 18:42 5,4 C 97 % 1028,8 hPa 0,0 l/m 15,8 km/h (3 Bft) SW 228 0 min 0,000 mm 0,0 UV-I 0 W/m 5,0 C -0,8 C 24,1 km/h (4 Bft) 100,00 %
24.12.2016 18:44 5,4 C 97 % 1028,8 hPa 0,0 l/m 13,7 km/h (3 Bft) S-SW 202 0 min 0,000 mm 0,0 UV-I 0 W/m 5,0 C 0,2 C 20,9 km/h (4 Bft) 100,00 %
24.12.2016 18:46 5,4 C 97 % 1028,8 hPa 0,0 l/m 15,2 km/h (3 Bft) SW 234 0 min 0,000 mm 0,0 UV-I 0 W/m 5,0 C -0,5 C 19,3 km/h (3 Bft) 96,23 %
24.12.2016 18:48 5,4 C 97 % 1028,9 hPa 0,0 l/m 14,5 km/h (3 Bft) W-SW 245 0 min 0,000 mm 0,0 UV-I 0 W/m 5,0 C -0,2 C 24,1 km/h (4 Bft) 97,56 %
24.12.2016 18:50 5,4 C 97 % 1028,9 hPa 0,0 l/m 17,0 km/h (3 Bft) S-SW 196 0 min 0,000 mm 0,0 UV-I 0 W/m 5,0 C -1,4 C 22,5 km/h (4 Bft) 100,00 %
24.12.2016 18:52 5,4 C 97 % 1028,9 hPa 0,0 l/m 16,0 km/h (3 Bft) W-SW 239 0 min 0,000 mm 0,0 UV-I 0 W/m 5,0 C -0,9 C 24,1 km/h (4 Bft) 100,00 %
24.12.2016 18:54 5,4 C 97 % 1028,8 hPa 0,0 l/m 16,0 km/h (3 Bft) SW 223 0 min 0,000 mm 0,0 UV-I 0 W/m 5,0 C -0,9 C 24,1 km/h (4 Bft) 97,87 %
24.12.2016 18:56 5,4 C 97 % 1028,8 hPa 0,0 l/m 17,8 km/h (3 Bft) W-SW 237 0 min 0,000 mm 0,0 UV-I 0 W/m 5,0 C -1,7 C 29,0 km/h (5 Bft) 98,11 %
24.12.2016 18:58 5,5 C 97 % 1028,8 hPa 0,0 l/m 13,9 km/h (3 Bft) W-SW 239 0 min 0,000 mm 0,0 UV-I 0 W/m 5,1 C 0,3 C 19,3 km/h (3 Bft) 100,00 %
24.12.2016 19:00 5,4 C 97 % 1028,8 hPa 0,0 l/m 15,6 km/h (3 Bft) SW 214 0 min 0,000 mm 0,0 UV-I 0 W/m 5,0 C -0,7 C 22,5 km/h (4 Bft) 100,00 %
24.12.2016 19:02 5,5 C 96 % 1028,8 hPa 0,0 l/m 16,2 km/h (3 Bft) W-SW 240 0 min 0,000 mm 0,0 UV-I 0 W/m 4,9 C -0,9 C 22,5 km/h (4 Bft) 100,00 %
24.12.2016 19:04 5,5 C 96 % 1028,9 hPa 0,0 l/m 10,6 km/h (2 Bft) S-SW 200 0 min 0,000 mm 0,0 UV-I 0 W/m 4,9 C 2,2 C 16,1 km/h (3 Bft) 96,00 %
24.12.2016 19:06 5,5 C 96 % 1028,8 hPa 0,0 l/m 14,6 km/h (3 Bft) W-SW 250 0 min 0,000 mm 0,0 UV-I 0 W/m 4,9 C -0,1 C 22,5 km/h (4 Bft) 100,00 %
24.12.2016 19:08 5,5 C 96 % 1028,9 hPa 0,0 l/m 19,4 km/h (3 Bft) W-SW 244 0 min 0,000 mm 0,0 UV-I 0 W/m 4,9 C -2,3 C 27,4 km/h (4 Bft) 100,00 %
24.12.2016 19:10 5,6 C 96 % 1028,8 hPa 0,0 l/m 18,9 km/h (3 Bft) W-SW 247 0 min 0,000 mm 0,0 UV-I 0 W/m 5,0 C -2,0 C 29,0 km/h (5 Bft) 98,11 %
24.12.2016 19:12 5,5 C 96 % 1028,8 hPa 0,0 l/m 16,6 km/h (3 Bft) W-SW 247 0 min 0,000 mm 0,0 UV-I 0 W/m 4,9 C -1,1 C 24,1 km/h (4 Bft) 98,00 %
24.12.2016 19:14 5,5 C 96 % 1028,8 hPa 0,0 l/m 13,5 km/h (3 Bft) SW 217 0 min 0,000 mm 0,0 UV-I 0 W/m 4,9 C 0,5 C 19,3 km/h (3 Bft) 100,00 %
24.12.2016 19:16 5,5 C 96 % 1028,8 hPa 0,0 l/m 16,0 km/h (3 Bft) W-SW 240 0 min 0,000 mm 0,0 UV-I 0 W/m 4,9 C -0,8 C 24,1 km/h (4 Bft) 100,00 %
24.12.2016 19:18 5,5 C 96 % 1028,8 hPa 0,0 l/m 13,9 km/h (3 Bft) W-SW 242 0 min 0,000 mm 0,0 UV-I 0 W/m 4,9 C 0,3 C 24,1 km/h (4 Bft) 100,00 %
24.12.2016 19:20 5,5 C 96 % 1028,8 hPa 0,0 l/m 11,8 km/h (2 Bft) W-SW 244 0 min 0,000 mm 0,0 UV-I 0 W/m 4,9 C 1,5 C 16,1 km/h (3 Bft) 97,87 %
24.12.2016 19:22 5,5 C 96 % 1028,7 hPa 0,0 l/m 14,7 km/h (3 Bft) W-SW 246 0 min 0,000 mm 0,0 UV-I 0 W/m 4,9 C -0,2 C 20,9 km/h (4 Bft) 100,00 %
24.12.2016 19:24 5,6 C 96 % 1028,8 hPa 0,0 l/m 10,4 km/h (2 Bft) W-SW 248 0 min 0,000 mm 0,0 UV-I 0 W/m 5,0 C 2,5 C 17,7 km/h (3 Bft) 100,00 %
24.12.2016 19:26 5,6 C 96 % 1028,9 hPa 0,0 l/m 13,5 km/h (3 Bft) W-SW 243 0 min 0,000 mm 0,0 UV-I 0 W/m 5,0 C 0,6 C 19,3 km/h (3 Bft) 100,00 %
24.12.2016 19:28 5,6 C 96 % 1028,9 hPa 0,0 l/m 11,9 km/h (2 Bft) W-SW 250 0 min 0,000 mm 0,0 UV-I 0 W/m 5,0 C 1,5 C 19,3 km/h (3 Bft) 95,12 %
24.12.2016 19:30 5,6 C 95 % 1028,9 hPa 0,0 l/m 13,1 km/h (3 Bft) W-SW 246 0 min 0,000 mm 0,0 UV-I 0 W/m 4,9 C 0,8 C 19,3 km/h (3 Bft) 100,00 %
24.12.2016 19:32 5,6 C 95 % 1028,9 hPa 0,0 l/m 14,5 km/h (3 Bft) SW 234 0 min 0,000 mm 0,0 UV-I 0 W/m 4,9 C 0,1 C 19,3 km/h (3 Bft) 100,00 %
24.12.2016 19:34 5,6 C 95 % 1029,0 hPa 0,0 l/m 12,1 km/h (2 Bft) W 268 0 min 0,000 mm 0,0 UV-I 0 W/m 4,9 C 1,4 C 16,1 km/h (3 Bft) 100,00 %
24.12.2016 19:36 5,6 C 95 % 1029,0 hPa 0,0 l/m 13,9 km/h (3 Bft) W-SW 252 0 min 0,000 mm 0,0 UV-I 0 W/m 4,9 C 0,4 C 19,3 km/h (3 Bft) 100,00 %
24.12.2016 19:38 5,7 C 95 % 1029,1 hPa 0,0 l/m 13,8 km/h (3 Bft) W 259 0 min 0,000 mm 0,0 UV-I 0 W/m 5,0 C 0,5 C 24,1 km/h (4 Bft) 98,51 %
24.12.2016 19:40 5,7 C 95 % 1029,1 hPa 0,0 l/m 13,2 km/h (3 Bft) SW 223 0 min 0,000 mm 0,0 UV-I 0 W/m 5,0 C 0,9 C 24,1 km/h (4 Bft) 97,73 %
24.12.2016 19:42 5,7 C 95 % 1029,1 hPa 0,0 l/m 12,3 km/h (3 Bft) W-SW 255 0 min 0,000 mm 0,0 UV-I 0 W/m 5,0 C 1,4 C 17,7 km/h (3 Bft) 96,55 %
24.12.2016 19:44 5,7 C 95 % 1029,1 hPa 0,0 l/m 12,2 km/h (2 Bft) W 261 0 min 0,000 mm 0,0 UV-I 0 W/m 5,0 C 1,4 C 19,3 km/h (3 Bft) 96,30 %
24.12.2016 19:46 5,7 C 94 % 1029,2 hPa 0,0 l/m 13,9 km/h (3 Bft) SW 224 0 min 0,000 mm 0,0 UV-I 0 W/m 4,8 C 0,5 C 19,3 km/h (3 Bft) 98,18 %
24.12.2016 19:48 5,8 C 94 % 1029,2 hPa 0,0 l/m 15,0 km/h (3 Bft) W-SW 240 0 min 0,000 mm 0,0 UV-I 0 W/m 4,9 C 0,0 C 27,4 km/h (4 Bft) 96,00 %
24.12.2016 19:50 5,8 C 94 % 1029,2 hPa 0,0 l/m 18,0 km/h (3 Bft) W-SW 239 0 min 0,000 mm 0,0 UV-I 0 W/m 4,9 C -1,3 C 25,7 km/h (4 Bft) 97,62 %
24.12.2016 19:52 5,9 C 94 % 1029,2 hPa 0,0 l/m 21,6 km/h (4 Bft) W-SW 250 0 min 0,000 mm 0,0 UV-I 0 W/m 5,0 C -2,6 C 33,8 km/h (5 Bft) 95,08 %
24.12.2016 19:54 6,1 C 93 % 1029,2 hPa 0,0 l/m 23,2 km/h (4 Bft) W-SW 242 0 min 0,000 mm 0,0 UV-I 0 W/m 5,1 C -2,9 C 38,6 km/h (5 Bft) 97,62 %
24.12.2016 19:56 6,2 C 93 % 1029,2 hPa 0,0 l/m 22,7 km/h (4 Bft) W 265 0 min 0,000 mm 0,0 UV-I 0 W/m 5,2 C -2,6 C 30,6 km/h (5 Bft) 96,15 %
24.12.2016 19:58 6,3 C 92 % 1029,2 hPa 0,0 l/m 15,9 km/h (3 Bft) W-SW 249 0 min 0,000 mm 0,0 UV-I 0 W/m 5,1 C 0,2 C 20,9 km/h (4 Bft) 95,24 %
24.12.2016 20:00 6,3 C 92 % 1029,1 hPa 0,0 l/m 22,1 km/h (4 Bft) W 262 0 min 0,000 mm 0,0 UV-I 0 W/m 5,1 C -2,2 C 33,8 km/h (5 Bft) 97,56 %
24.12.2016 20:02 6,4 C 91 % 1029,1 hPa 0,0 l/m 17,9 km/h (3 Bft) W 270 0 min 0,000 mm 0,0 UV-I 0 W/m 5,0 C -0,5 C 25,7 km/h (4 Bft) 98,08 %
24.12.2016 20:04 6,4 C 91 % 1029,1 hPa 0,0 l/m 16,7 km/h (3 Bft) W-SW 245 0 min 0,000 mm 0,0 UV-I 0 W/m 5,0 C -0,0 C 24,1 km/h (4 Bft) 95,45 %
24.12.2016 20:06 6,4 C 91 % 1029,1 hPa 0,0 l/m 19,7 km/h (3 Bft) W 263 0 min 0,000 mm 0,0 UV-I 0 W/m 5,0 C -1,2 C 30,6 km/h (5 Bft) 96,23 %
24.12.2016 20:08 6,5 C 91 % 1029,1 hPa 0,0 l/m 20,2 km/h (4 Bft) W-SW 250 0 min 0,000 mm 0,0 UV-I 0 W/m 5,1 C -1,3 C 35,4 km/h (5 Bft) 97,56 %
24.12.2016 20:10 6,5 C 90 % 1029,2 hPa 0,0 l/m 15,4 km/h (3 Bft) W-SW 248 0 min 0,000 mm 0,0 UV-I 0 W/m 5,0 C 0,7 C 22,5 km/h (4 Bft) 97,87 %
24.12.2016 20:12 6,6 C 90 % 1029,2 hPa 0,0 l/m 15,5 km/h (3 Bft) W 261 0 min 0,000 mm 0,0 UV-I 0 W/m 5,1 C 0,8 C 19,3 km/h (3 Bft) 96,23 %
24.12.2016 20:14 6,6 C 90 % 1029,3 hPa 0,0 l/m 17,8 km/h (3 Bft) SW 231 0 min 0,000 mm 0,0 UV-I 0 W/m 5,1 C -0,2 C 30,6 km/h (5 Bft) 94,29 %
24.12.2016 20:16 6,6 C 90 % 1029,2 hPa 0,0 l/m 19,3 km/h (3 Bft) W-SW 254 0 min 0,000 mm 0,0 UV-I 0 W/m 5,1 C -0,8 C 37,0 km/h (5 Bft) 96,43 %
24.12.2016 20:18 6,6 C 90 % 1029,2 hPa 0,0 l/m 13,9 km/h (3 Bft) W-SW 242 0 min 0,000 mm 0,0 UV-I 0 W/m 5,1 C 1,6 C 22,5 km/h (4 Bft) 100,00 %
24.12.2016 20:20 6,6 C 90 % 1029,3 hPa 0,0 l/m 19,0 km/h (3 Bft) W-SW 253 0 min 0,000 mm 0,0 UV-I 0 W/m 5,1 C -0,7 C 27,4 km/h (4 Bft) 100,00 %
24.12.2016 20:22 6,6 C 90 % 1029,3 hPa 0,0 l/m 16,7 km/h (3 Bft) W 277 0 min 0,000 mm 0,0 UV-I 0 W/m 5,1 C 0,2 C 29,0 km/h (5 Bft) 100,00 %
24.12.2016 20:24 6,7 C 90 % 1029,3 hPa 0,0 l/m 16,5 km/h (3 Bft) W 259 0 min 0,000 mm 0,0 UV-I 0 W/m 5,2 C 0,4 C 24,1 km/h (4 Bft) 100,00 %
24.12.2016 20:26 6,7 C 90 % 1029,2 hPa 0,0 l/m 17,4 km/h (3 Bft) W-SW 257 0 min 0,000 mm 0,0 UV-I 0 W/m 5,2 C 0,1 C 22,5 km/h (4 Bft) 98,21 %
24.12.2016 20:28 6,7 C 90 % 1029,2 hPa 0,0 l/m 19,1 km/h (3 Bft) W-NW 287 0 min 0,000 mm 0,0 UV-I 0 W/m 5,2 C -0,6 C 29,0 km/h (5 Bft) 97,56 %
24.12.2016 20:30 6,7 C 90 % 1029,2 hPa 0,0 l/m 18,1 km/h (3 Bft) W 272 0 min 0,000 mm 0,0 UV-I 0 W/m 5,2 C -0,2 C 29,0 km/h (5 Bft) 100,00 %
24.12.2016 20:32 6,7 C 90 % 1029,3 hPa 0,0 l/m 16,8 km/h (3 Bft) W-SW 246 0 min 0,000 mm 0,0 UV-I 0 W/m 5,2 C 0,3 C 27,4 km/h (4 Bft) 100,00 %
24.12.2016 20:34 6,7 C 90 % 1029,3 hPa 0,0 l/m 12,0 km/h (2 Bft) W-SW 257 0 min 0,000 mm 0,0 UV-I 0 W/m 5,2 C 2,7 C 17,7 km/h (3 Bft) 100,00 %
24.12.2016 20:36 6,7 C 90 % 1029,3 hPa 0,0 l/m 10,4 km/h (2 Bft) W-SW 257 0 min 0,000 mm 0,0 UV-I 0 W/m 5,2 C 3,7 C 17,7 km/h (3 Bft) 100,00 %
24.12.2016 20:38 6,7 C 90 % 1029,2 hPa 0,0 l/m 16,2 km/h (3 Bft) W-SW 255 0 min 0,000 mm 0,0 UV-I 0 W/m 5,2 C 0,6 C 27,4 km/h (4 Bft) 100,00 %
24.12.2016 20:40 6,6 C 90 % 1029,2 hPa 0,0 l/m 12,4 km/h (3 Bft) W-NW 287 0 min 0,000 mm 0,0 UV-I 0 W/m 5,1 C 2,4 C 22,5 km/h (4 Bft) 100,00 %
24.12.2016 20:42 6,6 C 90 % 1029,2 hPa 0,0 l/m 9,6 km/h (2 Bft) W 271 0 min 0,000 mm 0,0 UV-I 0 W/m 5,1 C 4,1 C 24,1 km/h (4 Bft) 100,00 %
24.12.2016 20:44 6,6 C 90 % 1029,2 hPa 0,0 l/m 9,2 km/h (2 Bft) W 261 0 min 0,000 mm 0,0 UV-I 0 W/m 5,1 C 4,4 C 16,1 km/h (3 Bft) 100,00 %
24.12.2016 20:46 6,5 C 90 % 1029,4 hPa 0,0 l/m 11,7 km/h (2 Bft) W 263 0 min 0,000 mm 0,0 UV-I 0 W/m 5,0 C 2,7 C 17,7 km/h (3 Bft) 100,00 %
24.12.2016 20:48 6,4 C 90 % 1029,5 hPa 0,0 l/m 6,9 km/h (2 Bft) W 266 0 min 0,000 mm 0,0 UV-I 0 W/m 4,9 C 6,0 C 12,9 km/h (3 Bft) 100,00 %
24.12.2016 20:50 6,4 C 91 % 1029,6 hPa 0,0 l/m 10,0 km/h (2 Bft) W-SW 252 0 min 0,000 mm 0,0 UV-I 0 W/m 5,0 C 3,6 C 16,1 km/h (3 Bft) 100,00 %
24.12.2016 20:52 6,4 C 91 % 1029,7 hPa 0,0 l/m 10,4 km/h (2 Bft) W-SW 256 0 min 0,000 mm 0,0 UV-I 0 W/m 5,0 C 3,4 C 14,5 km/h (3 Bft) 100,00 %
24.12.2016 20:54 6,3 C 91 % 1029,6 hPa 0,0 l/m 13,9 km/h (3 Bft) W-NW 292 0 min 0,000 mm 0,0 UV-I 0 W/m 4,9 C 1,2 C 17,7 km/h (3 Bft) 100,00 %
24.12.2016 20:56 6,3 C 91 % 1029,7 hPa 0,0 l/m 15,3 km/h (3 Bft) W 264 0 min 0,000 mm 0,0 UV-I 0 W/m 4,9 C 0,5 C 27,4 km/h (4 Bft) 100,00 %
24.12.2016 20:58 6,3 C 91 % 1029,7 hPa 0,0 l/m 11,4 km/h (2 Bft) W 280 0 min 0,000 mm 0,0 UV-I 0 W/m 4,9 C 2,6 C 17,7 km/h (3 Bft) 98,11 %
24.12.2016 21:00 6,3 C 91 % 1029,6 hPa 0,0 l/m 22,9 km/h (4 Bft) W 259 0 min 0,000 mm 0,0 UV-I 0 W/m 4,9 C -2,5 C 37,0 km/h (5 Bft) 100,00 %
24.12.2016 21:02 6,4 C 90 % 1029,6 hPa 0,0 l/m 18,7 km/h (3 Bft) W 275 0 min 0,026 mm 0,0 UV-I 0 W/m 4,9 C -0,9 C 27,4 km/h (4 Bft) 97,37 %
24.12.2016 21:04 6,4 C 90 % 1029,5 hPa 0,0 l/m 17,7 km/h (3 Bft) W 266 0 min 0,000 mm 0,0 UV-I 0 W/m 4,9 C -0,4 C 27,4 km/h (4 Bft) 100,00 %
24.12.2016 21:06 6,4 C 90 % 1029,4 hPa 0,0 l/m 15,6 km/h (3 Bft) W-SW 252 0 min 0,000 mm 0,0 UV-I 0 W/m 4,9 C 0,5 C 20,9 km/h (4 Bft) 100,00 %
24.12.2016 21:08 6,4 C 89 % 1029,5 hPa 0,0 l/m 14,7 km/h (3 Bft) W-SW 248 0 min 0,000 mm 0,0 UV-I 0 W/m 4,7 C 0,9 C 22,5 km/h (4 Bft) 100,00 %
24.12.2016 21:10 6,4 C 89 % 1029,4 hPa 0,0 l/m 17,6 km/h (3 Bft) W-SW 241 0 min 0,000 mm 0,0 UV-I 0 W/m 4,7 C -0,4 C 25,7 km/h (4 Bft) 100,00 %
24.12.2016 21:12 6,4 C 89 % 1029,5 hPa 0,0 l/m 13,8 km/h (3 Bft) W-SW 241 0 min 0,000 mm 0,0 UV-I 0 W/m 4,7 C 1,4 C 20,9 km/h (4 Bft) 100,00 %
24.12.2016 21:14 6,4 C 89 % 1029,4 hPa 0,0 l/m 16,2 km/h (3 Bft) W-SW 252 0 min 0,000 mm 0,0 UV-I 0 W/m 4,7 C 0,2 C 20,9 km/h (4 Bft) 100,00 %
24.12.2016 21:16 6,4 C 88 % 1029,3 hPa 0,0 l/m 21,2 km/h (4 Bft) W 277 0 min 0,000 mm 0,0 UV-I 0 W/m 4,6 C -1,8 C 29,0 km/h (5 Bft) 100,00 %
24.12.2016 21:18 6,4 C 88 % 1029,3 hPa 0,0 l/m 21,6 km/h (4 Bft) W 281 0 min 0,000 mm 0,0 UV-I 0 W/m 4,6 C -1,9 C 33,8 km/h (5 Bft) 100,00 %
24.12.2016 21:20 6,4 C 88 % 1029,3 hPa 0,0 l/m 18,8 km/h (3 Bft) W 281 0 min 0,000 mm 0,0 UV-I 0 W/m 4,6 C -0,9 C 30,6 km/h (5 Bft) 100,00 %
24.12.2016 21:22 6,4 C 88 % 1029,4 hPa 0,0 l/m 15,4 km/h (3 Bft) W 259 0 min 0,000 mm 0,0 UV-I 0 W/m 4,6 C 0,6 C 22,5 km/h (4 Bft) 100,00 %
24.12.2016 21:24 6,4 C 88 % 1029,5 hPa 0,0 l/m 17,4 km/h (3 Bft) W 276 0 min 0,000 mm 0,0 UV-I 0 W/m 4,6 C -0,3 C 30,6 km/h (5 Bft) 98,00 %
24.12.2016 21:26 6,4 C 88 % 1029,5 hPa 0,0 l/m 17,0 km/h (3 Bft) W-SW 240 0 min 0,000 mm 0,0 UV-I 0 W/m 4,6 C -0,1 C 25,7 km/h (4 Bft) 100,00 %
24.12.2016 21:28 6,4 C 88 % 1029,6 hPa 0,0 l/m 16,4 km/h (3 Bft) W-SW 252 0 min 0,000 mm 0,0 UV-I 0 W/m 4,6 C 0,1 C 24,1 km/h (4 Bft) 97,87 %
24.12.2016 21:30 6,4 C 88 % 1029,6 hPa 0,0 l/m 13,1 km/h (3 Bft) W-SW 241 0 min 0,000 mm 0,0 UV-I 0 W/m 4,6 C 1,7 C 22,5 km/h (4 Bft) 100,00 %
24.12.2016 21:32 6,4 C 88 % 1029,6 hPa 0,0 l/m 16,8 km/h (3 Bft) W-NW 300 0 min 0,000 mm 0,0 UV-I 0 W/m 4,6 C -0,1 C 27,4 km/h (4 Bft) 97,87 %
24.12.2016 21:34 6,4 C 87 % 1029,8 hPa 0,0 l/m 19,6 km/h (3 Bft) W 268 0 min 0,000 mm 0,0 UV-I 0 W/m 4,4 C -1,2 C 43,5 km/h (6 Bft) 100,00 %
24.12.2016 21:36 6,4 C 87 % 1029,8 hPa 0,0 l/m 14,7 km/h (3 Bft) W 273 0 min 0,000 mm 0,0 UV-I 0 W/m 4,4 C 0,9 C 30,6 km/h (5 Bft) 100,00 %
24.12.2016 21:38 6,3 C 87 % 1029,8 hPa 0,0 l/m 19,4 km/h (3 Bft) W 277 0 min 0,000 mm 0,0 UV-I 0 W/m 4,3 C -1,3 C 30,6 km/h (5 Bft) 100,00 %
24.12.2016 21:40 6,3 C 87 % 1029,8 hPa 0,0 l/m 16,3 km/h (3 Bft) W-NW 286 0 min 0,000 mm 0,0 UV-I 0 W/m 4,3 C 0,0 C 25,7 km/h (4 Bft) 97,87 %
24.12.2016 21:42 6,3 C 87 % 1029,8 hPa 0,0 l/m 16,0 km/h (3 Bft) W 269 0 min 0,000 mm 0,0 UV-I 0 W/m 4,3 C 0,2 C 30,6 km/h (5 Bft) 97,87 %
24.12.2016 21:44 6,3 C 87 % 1029,9 hPa 0,0 l/m 13,3 km/h (3 Bft) W 270 0 min 0,000 mm 0,0 UV-I 0 W/m 4,3 C 1,5 C 24,1 km/h (4 Bft) 100,00 %
24.12.2016 21:46 6,3 C 87 % 1029,9 hPa 0,0 l/m 17,7 km/h (3 Bft) W 281 0 min 0,000 mm 0,0 UV-I 0 W/m 4,3 C -0,6 C 29,0 km/h (5 Bft) 97,87 %
24.12.2016 21:48 6,3 C 87 % 1029,9 hPa 0,0 l/m 16,7 km/h (3 Bft) W-NW 294 0 min 0,000 mm 0,0 UV-I 0 W/m 4,3 C -0,1 C 25,7 km/h (4 Bft) 100,00 %
24.12.2016 21:50 6,3 C 87 % 1029,9 hPa 0,0 l/m 12,5 km/h (3 Bft) W-SW 254 0 min 0,000 mm 0,0 UV-I 0 W/m 4,3 C 2,0 C 20,9 km/h (4 Bft) 95,83 %
24.12.2016 21:52 6,3 C 88 % 1029,9 hPa 0,0 l/m 16,9 km/h (3 Bft) W 269 0 min 0,000 mm 0,0 UV-I 0 W/m 4,5 C -0,2 C 35,4 km/h (5 Bft) 95,74 %
24.12.2016 21:54 6,3 C 87 % 1029,9 hPa 0,0 l/m 17,6 km/h (3 Bft) W 281 0 min 0,000 mm 0,0 UV-I 0 W/m 4,3 C -0,5 C 30,6 km/h (5 Bft) 97,87 %
24.12.2016 21:56 6,3 C 87 % 1029,9 hPa 0,0 l/m 20,7 km/h (4 Bft) W-SW 246 0 min 0,000 mm 0,0 UV-I 0 W/m 4,3 C -1,8 C 32,2 km/h (5 Bft) 98,00 %
24.12.2016 21:58 6,3 C 87 % 1030,0 hPa 0,0 l/m 12,6 km/h (3 Bft) W 270 0 min 0,000 mm 0,0 UV-I 0 W/m 4,3 C 1,9 C 19,3 km/h (3 Bft) 95,74 %
24.12.2016 22:00 6,2 C 87 % 1030,0 hPa 0,0 l/m 10,7 km/h (2 Bft) W 267 0 min 0,000 mm 0,0 UV-I 0 W/m 4,2 C 2,9 C 16,1 km/h (3 Bft) 96,00 %
24.12.2016 22:02 6,2 C 88 % 1029,9 hPa 0,0 l/m 12,8 km/h (3 Bft) W-SW 257 0 min 0,025 mm 0,0 UV-I 0 W/m 4,4 C 1,7 C 22,5 km/h (4 Bft) 95,12 %
24.12.2016 22:04 6,2 C 87 % 1030,0 hPa 0,0 l/m 13,3 km/h (3 Bft) W 265 0 min 0,000 mm 0,0 UV-I 0 W/m 4,2 C 1,4 C 25,7 km/h (4 Bft) 97,87 %
24.12.2016 22:06 6,2 C 88 % 1029,9 hPa 0,0 l/m 11,5 km/h (2 Bft) W 268 0 min 0,000 mm 0,0 UV-I 0 W/m 4,4 C 2,4 C 19,3 km/h (3 Bft) 95,74 %
24.12.2016 22:08 6,2 C 88 % 1029,7 hPa 0,0 l/m 12,6 km/h (3 Bft) W 267 0 min 0,000 mm 0,0 UV-I 0 W/m 4,4 C 1,8 C 19,3 km/h (3 Bft) 95,74 %
24.12.2016 22:10 6,1 C 88 % 1029,5 hPa 0,0 l/m 10,4 km/h (2 Bft) W 266 0 min 0,000 mm 0,0 UV-I 0 W/m 4,3 C 3,0 C 19,3 km/h (3 Bft) 97,87 %
24.12.2016 22:12 6,1 C 88 % 1029,4 hPa 0,0 l/m 12,2 km/h (2 Bft) W-SW 254 0 min 0,000 mm 0,0 UV-I 0 W/m 4,3 C 1,9 C 16,1 km/h (3 Bft) 97,87 %
24.12.2016 22:14 6,1 C 88 % 1029,3 hPa 0,0 l/m 14,8 km/h (3 Bft) W-SW 250 0 min 0,000 mm 0,0 UV-I 0 W/m 4,3 C 0,5 C 22,5 km/h (4 Bft) 98,00 %
24.12.2016 22:16 6,1 C 88 % 1029,4 hPa 0,0 l/m 15,3 km/h (3 Bft) W-SW 253 0 min 0,000 mm 0,0 UV-I 0 W/m 4,3 C 0,3 C 20,9 km/h (4 Bft) 97,87 %
24.12.2016 22:18 6,1 C 88 % 1029,4 hPa 0,0 l/m 11,5 km/h (2 Bft) W-SW 257 0 min 0,000 mm 0,0 UV-I 0 W/m 4,3 C 2,3 C 16,1 km/h (3 Bft) 97,87 %
24.12.2016 22:20 6,1 C 88 % 1029,3 hPa 0,0 l/m 12,0 km/h (2 Bft) W-SW 256 0 min 0,000 mm 0,0 UV-I 0 W/m 4,3 C 2,0 C 17,7 km/h (3 Bft) 97,87 %
24.12.2016 22:22 6,1 C 88 % 1029,3 hPa 0,0 l/m 15,5 km/h (3 Bft) W 281 0 min 0,000 mm 0,0 UV-I 0 W/m 4,3 C 0,2 C 29,0 km/h (5 Bft) 93,62 %
24.12.2016 22:24 6,1 C 88 % 1029,4 hPa 0,0 l/m 16,1 km/h (3 Bft) W 262 0 min 0,000 mm 0,0 UV-I 0 W/m 4,3 C -0,1 C 25,7 km/h (4 Bft) 97,87 %
24.12.2016 22:26 6,1 C 88 % 1029,3 hPa 0,0 l/m 14,1 km/h (3 Bft) SW 236 0 min 0,000 mm 0,0 UV-I 0 W/m 4,3 C 0,9 C 24,1 km/h (4 Bft) 97,87 %
24.12.2016 22:28 6,1 C 88 % 1029,3 hPa 0,0 l/m 17,8 km/h (3 Bft) W-NW 284 0 min 0,000 mm 0,0 UV-I 0 W/m 4,3 C -0,9 C 25,7 km/h (4 Bft) 100,00 %
24.12.2016 22:30 6,1 C 87 % 1029,3 hPa 0,0 l/m 15,4 km/h (3 Bft) W 259 0 min 0,000 mm 0,0 UV-I 0 W/m 4,1 C 0,2 C 22,5 km/h (4 Bft) 97,44 %
24.12.2016 22:32 6,1 C 87 % 1029,4 hPa 0,0 l/m 15,2 km/h (3 Bft) S-SW 211 0 min 0,000 mm 0,0 UV-I 0 W/m 4,1 C 0,3 C 24,1 km/h (4 Bft) 100,00 %
24.12.2016 22:34 6,2 C 87 % 1029,3 hPa 0,0 l/m 17,6 km/h (3 Bft) W-SW 255 0 min 0,000 mm 0,0 UV-I 0 W/m 4,2 C -0,7 C 24,1 km/h (4 Bft) 97,87 %
24.12.2016 22:36 6,2 C 86 % 1029,3 hPa 0,0 l/m 18,3 km/h (3 Bft) W 260 0 min 0,000 mm 0,0 UV-I 0 W/m 4,0 C -1,0 C 25,7 km/h (4 Bft) 97,87 %
24.12.2016 22:38 6,2 C 86 % 1029,3 hPa 0,0 l/m 17,5 km/h (3 Bft) W 261 0 min 0,000 mm 0,0 UV-I 0 W/m 4,0 C -0,6 C 24,1 km/h (4 Bft) 100,00 %
24.12.2016 22:40 6,2 C 86 % 1029,3 hPa 0,0 l/m 15,9 km/h (3 Bft) W-SW 249 0 min 0,000 mm 0,0 UV-I 0 W/m 4,0 C 0,1 C 22,5 km/h (4 Bft) 95,74 %
24.12.2016 22:42 6,2 C 86 % 1029,3 hPa 0,0 l/m 19,8 km/h (3 Bft) W-SW 248 0 min 0,000 mm 0,0 UV-I 0 W/m 4,0 C -1,5 C 29,0 km/h (5 Bft) 100,00 %
24.12.2016 22:44 6,2 C 86 % 1029,3 hPa 0,0 l/m 16,2 km/h (3 Bft) W 263 0 min 0,000 mm 0,0 UV-I 0 W/m 4,0 C -0,0 C 24,1 km/h (4 Bft) 93,62 %
24.12.2016 22:46 6,2 C 86 % 1029,3 hPa 0,0 l/m 13,2 km/h (3 Bft) W-NW 284 0 min 0,000 mm 0,0 UV-I 0 W/m 4,0 C 1,5 C 19,3 km/h (3 Bft) 100,00 %
24.12.2016 22:48 6,2 C 86 % 1029,3 hPa 0,0 l/m 14,0 km/h (3 Bft) SW 232 0 min 0,000 mm 0,0 UV-I 0 W/m 4,0 C 1,0 C 22,5 km/h (4 Bft) 100,00 %
24.12.2016 22:50 6,2 C 86 % 1029,2 hPa 0,0 l/m 17,5 km/h (3 Bft) W-SW 250 0 min 0,000 mm 0,0 UV-I 0 W/m 4,0 C -0,6 C 24,1 km/h (4 Bft) 100,00 %
24.12.2016 22:52 6,2 C 86 % 1029,2 hPa 0,0 l/m 15,5 km/h (3 Bft) W-NW 290 0 min 0,000 mm 0,0 UV-I 0 W/m 4,0 C 0,3 C 22,5 km/h (4 Bft) 100,00 %
24.12.2016 22:54 6,2 C 86 % 1029,1 hPa 0,0 l/m 12,8 km/h (3 Bft) W-SW 250 0 min 0,000 mm 0,0 UV-I 0 W/m 4,0 C 1,7 C 19,3 km/h (3 Bft) 100,00 %
24.12.2016 22:56 6,2 C 86 % 1029,2 hPa 0,0 l/m 15,1 km/h (3 Bft) W 261 0 min 0,000 mm 0,0 UV-I 0 W/m 4,0 C 0,5 C 25,7 km/h (4 Bft) 100,00 %
24.12.2016 22:58 6,2 C 87 % 1029,2 hPa 0,0 l/m 12,5 km/h (3 Bft) W-SW 253 0 min 0,000 mm 0,0 UV-I 0 W/m 4,2 C 1,8 C 19,3 km/h (3 Bft) 100,00 %
24.12.2016 23:00 6,2 C 87 % 1029,2 hPa 0,0 l/m 12,3 km/h (3 Bft) W 273 0 min 0,000 mm 0,0 UV-I 0 W/m 4,2 C 2,0 C 19,3 km/h (3 Bft) 100,00 %
24.12.2016 23:02 6,2 C 87 % 1029,2 hPa 0,0 l/m 11,5 km/h (2 Bft) S-SW 212 0 min 0,026 mm 0,0 UV-I 0 W/m 4,2 C 2,4 C 17,7 km/h (3 Bft) 100,00 %
24.12.2016 23:04 6,2 C 87 % 1029,1 hPa 0,0 l/m 12,0 km/h (2 Bft) W-SW 247 0 min 0,000 mm 0,0 UV-I 0 W/m 4,2 C 2,1 C 17,7 km/h (3 Bft) 100,00 %
24.12.2016 23:06 6,1 C 87 % 1029,2 hPa 0,0 l/m 9,5 km/h (2 Bft) SW 228 0 min 0,000 mm 0,0 UV-I 0 W/m 4,1 C 3,6 C 14,5 km/h (3 Bft) 97,87 %
24.12.2016 23:08 6,1 C 88 % 1029,2 hPa 0,0 l/m 10,4 km/h (2 Bft) SW 232 0 min 0,000 mm 0,0 UV-I 0 W/m 4,3 C 3,0 C 16,1 km/h (3 Bft) 100,00 %
24.12.2016 23:10 5,9 C 88 % 1029,1 hPa 0,0 l/m 10,6 km/h (2 Bft) SW 224 0 min 0,000 mm 0,0 UV-I 0 W/m 4,1 C 2,7 C 16,1 km/h (3 Bft) 100,00 %
24.12.2016 23:12 5,9 C 88 % 1029,1 hPa 0,0 l/m 12,2 km/h (2 Bft) SW 217 0 min 0,000 mm 0,0 UV-I 0 W/m 4,1 C 1,7 C 19,3 km/h (3 Bft) 100,00 %
24.12.2016 23:14 5,9 C 89 % 1029,1 hPa 0,0 l/m 11,6 km/h (2 Bft) W-SW 240 0 min 0,000 mm 0,0 UV-I 0 W/m 4,2 C 2,0 C 19,3 km/h (3 Bft) 100,00 %
24.12.2016 23:16 5,8 C 89 % 1029,0 hPa 0,0 l/m 9,8 km/h (2 Bft) SW 217 0 min 0,000 mm 0,0 UV-I 0 W/m 4,1 C 3,1 C 16,1 km/h (3 Bft) 100,00 %
24.12.2016 23:18 5,8 C 89 % 1029,1 hPa 0,0 l/m 14,3 km/h (3 Bft) W-SW 237 0 min 0,000 mm 0,0 UV-I 0 W/m 4,1 C 0,4 C 25,7 km/h (4 Bft) 97,87 %
24.12.2016 23:20 5,8 C 89 % 1029,1 hPa 0,0 l/m 14,8 km/h (3 Bft) SW 233 0 min 0,000 mm 0,0 UV-I 0 W/m 4,1 C 0,1 C 20,9 km/h (4 Bft) 97,87 %
24.12.2016 23:22 5,8 C 89 % 1029,1 hPa 0,0 l/m 14,5 km/h (3 Bft) S-SW 192 0 min 0,000 mm 0,0 UV-I 0 W/m 4,1 C 0,3 C 22,5 km/h (4 Bft) 100,00 %
24.12.2016 23:24 5,8 C 89 % 1029,1 hPa 0,0 l/m 15,8 km/h (3 Bft) SW 232 0 min 0,000 mm 0,0 UV-I 0 W/m 4,1 C -0,3 C 25,7 km/h (4 Bft) 100,00 %
24.12.2016 23:26 5,8 C 89 % 1029,0 hPa 0,0 l/m 15,1 km/h (3 Bft) SW 220 0 min 0,000 mm 0,0 UV-I 0 W/m 4,1 C -0,0 C 24,1 km/h (4 Bft) 100,00 %
24.12.2016 23:28 5,8 C 89 % 1029,0 hPa 0,0 l/m 14,6 km/h (3 Bft) SW 236 0 min 0,000 mm 0,0 UV-I 0 W/m 4,1 C 0,2 C 22,5 km/h (4 Bft) 100,00 %
24.12.2016 23:30 5,8 C 89 % 1028,9 hPa 0,0 l/m 15,9 km/h (3 Bft) SW 225 0 min 0,000 mm 0,0 UV-I 0 W/m 4,1 C -0,4 C 24,1 km/h (4 Bft) 100,00 %
24.12.2016 23:32 5,8 C 89 % 1028,9 hPa 0,0 l/m 14,9 km/h (3 Bft) SW 219 0 min 0,000 mm 0,0 UV-I 0 W/m 4,1 C 0,1 C 25,7 km/h (4 Bft) 97,87 %
24.12.2016 23:34 5,8 C 89 % 1028,9 hPa 0,0 l/m 14,2 km/h (3 Bft) S-SW 213 0 min 0,000 mm 0,0 UV-I 0 W/m 4,1 C 0,5 C 22,5 km/h (4 Bft) 97,87 %
24.12.2016 23:36 5,8 C 89 % 1028,9 hPa 0,0 l/m 15,3 km/h (3 Bft) SW 232 0 min 0,000 mm 0,0 UV-I 0 W/m 4,1 C -0,1 C 22,5 km/h (4 Bft) 100,00 %
24.12.2016 23:38 5,8 C 89 % 1028,8 hPa 0,0 l/m 13,8 km/h (3 Bft) S-SW 206 0 min 0,000 mm 0,0 UV-I 0 W/m 4,1 C 0,7 C 19,3 km/h (3 Bft) 100,00 %
24.12.2016 23:40 5,8 C 89 % 1028,8 hPa 0,0 l/m 13,3 km/h (3 Bft) SW 216 0 min 0,000 mm 0,0 UV-I 0 W/m 4,1 C 0,9 C 20,9 km/h (4 Bft) 100,00 %
24.12.2016 23:42 5,8 C 89 % 1028,7 hPa 0,0 l/m 11,7 km/h (2 Bft) W-SW 238 0 min 0,000 mm 0,0 UV-I 0 W/m 4,1 C 1,9 C 17,7 km/h (3 Bft) 100,00 %
24.12.2016 23:44 5,8 C 89 % 1028,6 hPa 0,0 l/m 16,3 km/h (3 Bft) W 273 0 min 0,000 mm 0,0 UV-I 0 W/m 4,1 C -0,6 C 24,1 km/h (4 Bft) 97,87 %
24.12.2016 23:46 5,8 C 89 % 1028,7 hPa 0,0 l/m 10,0 km/h (2 Bft) W-SW 244 0 min 0,000 mm 0,0 UV-I 0 W/m 4,1 C 3,0 C 17,7 km/h (3 Bft) 100,00 %
24.12.2016 23:48 5,8 C 89 % 1028,7 hPa 0,0 l/m 12,5 km/h (3 Bft) SW 227 0 min 0,000 mm 0,0 UV-I 0 W/m 4,1 C 1,4 C 20,9 km/h (4 Bft) 97,92 %
24.12.2016 23:50 5,7 C 89 % 1028,7 hPa 0,0 l/m 12,7 km/h (3 Bft) SW 223 0 min 0,000 mm 0,0 UV-I 0 W/m 4,0 C 1,2 C 17,7 km/h (3 Bft) 100,00 %
24.12.2016 23:52 5,7 C 89 % 1028,8 hPa 0,0 l/m 13,3 km/h (3 Bft) SW 229 0 min 0,000 mm 0,0 UV-I 0 W/m 4,0 C 0,8 C 22,5 km/h (4 Bft) 100,00 %
24.12.2016 23:54 5,7 C 89 % 1028,8 hPa 0,0 l/m 15,0 km/h (3 Bft) S-SW 207 0 min 0,000 mm 0,0 UV-I 0 W/m 4,0 C -0,1 C 24,1 km/h (4 Bft) 100,00 %
24.12.2016 23:56 5,7 C 89 % 1028,7 hPa 0,0 l/m 17,5 km/h (3 Bft) SW 236 0 min 0,000 mm 0,0 UV-I 0 W/m 4,0 C -1,2 C 27,4 km/h (4 Bft) 100,00 %
24.12.2016 23:58 5,7 C 89 % 1028,7 hPa 0,0 l/m 18,3 km/h (3 Bft) W 263 0 min 0,000 mm 0,0 UV-I 0 W/m 4,0 C -1,6 C 25,7 km/h (4 Bft) 96,00 %
_ Min-Zeit 03:18 13:34 14:55 - 00:00 - - - - - - 03:20 09:04 00:00 04:12
Minimum _ -0,8 C 86 % 1028,1 hPa - 0,0 km/h (0 Bft) - - - - - - -0,9 C -6,1 C 0,0 km/h (0 Bft) 0,00 %
_ Max-Zeit 20:24 00:00 00:00 09:48 19:54 - - 08:06 13:02 12:32 12:52 20:24 20:48 21:34 00:04
Maximum _ 6,7 C 99 % 1033,0 hPa 0,2 l/m 23,2 km/h
W-SW (4 Bft)
- - 2 min 0,076 mm 0,5 UV-I 296 W/m 5,2 C 6,0 C 43,5 km/h
W-SW (6 Bft)
100,00 %
Durchschnitt _ 3,0 C 95 % 1030,4 hPa #3,0 l/m 9,6 km/h (2 Bft) W-SW - #42 min. #0,356 mm 0,4 UV-I 76 W/m 2,2 C -0,0 C 15,0 km/h (3 Bft) 97,18 %